GFSFLT2_925_spd_000.txt.gz
Wind_Speed
7 6 4 3 3 2 2 2 1 0 1 2 2 2 3 4 4 5 6 7 8 8 8 7 7 6 6 6 5 4 2 5
6 6 5 3 2 0 1 1 1 1 2 2 3 5 5 4 5 5 5 7 8 9 9 9 8 7 6 5 4 5 3 3
6 5 4 3 2 1 2 1 1 3 4 5 4 2 3 4 6 7 8 9 11 11 11 10 9 9 7 6 5 5 5 5
9 8 5 3 2 1 1 0 0 1 3 3 4 5 5 6 7 10 10 10 11 12 11 10 8 7 7 8 6 6 6 6
10 7 5 4 3 2 1 2 3 4 4 5 6 7 8 8 8 8 8 10 8 10 9 8 8 9 9 8 7 7 7 6
8 7 6 5 4 2 3 4 5 6 7 8 8 9 10 10 10 12 11 11 11 10 10 10 8 7 6 6 5 5 5 4
9 7 6 5 5 4 4 5 5 6 8 9 9 10 10 11 12 12 12 12 12 12 12 11 8 6 6 6 6 5 4 4
10 9 7 5 4 3 3 3 4 5 6 8 9 9 10 11 12 12 12 12 12 12 12 11 10 9 8 8 8 7 6 6
11 10 7 4 3 2 1 1 3 4 5 7 8 9 10 11 12 12 12 12 13 12 12 12 12 11 11 11 10 9 8 8
11 10 6 3 3 2 2 2 3 4 6 7 9 10 12 13 14 14 14 15 15 15 15 15 15 14 14 14 13 13 12 11
14 10 6 5 3 2 3 3 3 5 7 8 10 12 13 14 17 18 16 16 17 18 19 19 19 18 17 17 17 17 15 14
13 10 5 3 2 3 4 5 4 5 6 7 9 11 12 14 17 19 19 19 21 22 22 23 23 23 23 21 21 20 19 18
10 8 4 2 1 4 5 7 7 6 7 10 12 12 14 16 18 19 20 21 22 23 25 27 27 26 24 25 26 25 24 23
7 6 6 4 3 4 4 7 7 8 10 13 14 17 18 17 18 19 20 22 22 22 23 25 27 27 27 25 14 24 27 25
8 10 11 11 8 6 6 6 9 10 15 16 18 20 19 18 18 18 18 19 22 23 23 25 28 28 28 22 11 15 18 25
13 12 10 9 9 8 9 10 11 12 13 15 20 18 19 19 19 18 18 18 20 22 23 24 26 29 29 30 35 31 14 13
10 9 9 8 7 9 9 10 10 12 16 19 20 19 19 19 18 17 16 15 16 16 16 16 19 24 26 26 25 27 28 16
7 7 8 9 10 10 10 11 14 18 20 23 22 24 22 20 17 13 10 10 10 8 7 8 8 8 9 9 10 7 12 12
6 8 9 12 12 8 8 12 17 19 22 23 26 25 22 20 14 11 9 7 5 4 4 4 5 6 7 7 10 11 12 11
7 6 8 8 6 10 13 15 17 21 22 24 25 23 19 13 10 9 9 8 8 8 6 10 10 8 7 5 4 4 3 3

GFSFLT2_925_spd_003.txt.gz
Wind_Speed
8 7 5 4 3 3 2 2 2 2 3 4 4 4 5 5 5 6 7 8 10 9 9 9 8 7 8 8 8 8 8 9
8 7 7 5 3 3 3 2 2 2 3 4 5 5 10 8 6 8 9 9 9 10 10 9 8 8 7 6 5 4 6 7
6 7 6 4 5 5 5 6 5 6 6 8 4 3 5 5 7 10 10 10 11 12 13 12 11 7 10 11 8 6 7 7
8 6 5 4 4 3 3 2 2 2 4 5 5 7 6 9 6 13 10 13 14 10 12 13 10 11 12 11 9 8 9 6
8 7 4 2 4 2 1 1 2 2 3 6 7 8 7 9 9 9 8 12 10 12 11 10 10 10 10 10 10 10 10 9
7 6 3 2 1 1 1 1 2 3 5 5 7 9 10 10 11 12 13 12 12 12 13 11 12 10 10 9 8 8 9 9
9 7 5 2 1 0 1 2 1 2 3 4 6 7 9 11 12 12 12 12 12 13 13 13 12 11 10 11 10 10 10 9
9 9 6 3 3 2 2 1 1 2 2 3 4 5 7 9 11 11 12 12 12 13 14 15 14 13 13 13 13 13 12 12
11 9 7 4 4 4 2 1 1 2 3 3 3 4 7 9 12 12 13 14 15 15 15 16 16 16 17 16 16 16 15 15
9 9 8 5 6 5 2 1 3 4 4 5 5 6 8 10 13 15 15 16 17 19 20 20 20 20 20 20 20 19 19 18
9 11 9 7 7 4 3 2 5 6 7 7 5 8 9 11 14 17 18 20 21 22 23 22 23 23 25 25 23 23 23 23
12 12 8 6 5 3 5 5 6 7 7 6 7 9 9 12 15 17 19 22 22 23 23 25 26 26 29 30 28 25 25 25
10 13 6 4 5 5 6 7 9 7 8 7 10 9 13 14 16 18 18 21 22 23 24 25 24 25 27 27 28 31 30 28
8 7 4 2 0 4 4 5 7 9 8 12 12 12 14 15 15 18 18 20 21 23 23 24 25 24 24 26 14 24 30 33
9 9 8 8 5 5 8 8 9 12 15 17 17 20 19 18 17 18 19 20 21 22 22 24 25 25 25 24 14 15 16 27
11 9 8 9 10 7 10 10 12 14 16 19 20 20 20 19 19 19 19 21 21 22 23 23 25 25 25 27 31 30 16 16
8 6 7 7 6 6 9 13 20 26 26 20 19 19 19 20 20 20 22 21 20 20 19 18 19 21 21 21 23 23 23 9
6 6 3 2 2 8 14 16 14 16 17 18 18 20 21 20 21 19 20 20 17 17 17 15 9 13 14 14 14 9 16 11
6 7 10 12 14 12 10 11 14 16 18 18 21 22 22 21 20 19 19 18 19 16 12 8 6 5 11 12 11 11 11 11
11 12 14 13 11 12 14 15 16 17 18 20 21 21 22 21 21 20 21 19 17 12 9 10 8 10 9 11 13 10 8 8

GFSFLT2_925_spd_006.txt.gz
Wind_Speed
13 11 11 9 8 7 7 6 6 7 6 6 6 7 9 9 6 10 10 9 10 10 10 10 9 10 9 11 12 12 12 9
14 9 8 8 9 9 7 7 8 9 9 9 6 6 7 8 8 13 13 11 13 12 13 13 11 7 9 12 14 9 7 13
13 12 10 10 9 9 10 9 10 9 7 9 5 6 5 3 9 10 10 12 15 10 12 15 10 9 12 10 12 8 12 12
11 11 8 6 9 8 6 6 8 7 4 5 7 6 3 6 8 8 8 11 12 9 14 12 9 12 12 13 12 12 15 12
16 10 8 4 8 5 8 9 6 3 5 2 4 4 5 7 11 10 13 12 6 15 13 13 11 17 12 13 13 13 13 15
20 13 9 6 5 5 6 5 5 2 4 2 3 4 4 6 6 8 9 11 12 10 11 11 15 11 14 12 13 13 13 15
22 19 12 9 8 5 3 4 4 2 2 1 1 2 3 5 6 8 10 10 10 10 13 14 12 14 15 12 13 15 16 17
23 20 17 10 8 7 5 5 1 3 1 3 3 3 5 6 8 10 11 12 12 15 17 17 16 15 14 17 17 16 18 17
27 18 14 12 10 7 4 7 2 0 0 1 2 4 6 8 9 10 12 14 14 18 18 18 19 20 20 18 20 22 22 20
10 24 19 13 12 10 6 4 1 4 5 2 6 3 6 8 11 15 16 18 19 20 21 22 22 22 23 23 23 24 24 24
24 24 16 12 11 8 5 2 2 6 8 5 6 7 7 8 14 17 21 22 22 23 25 24 22 21 23 24 27 25 27 26
10 15 18 11 12 4 2 4 5 2 7 5 10 12 9 13 17 19 21 21 22 22 24 26 28 28 27 26 28 32 32 30
22 19 12 5 4 4 9 11 11 10 9 11 12 12 13 18 22 20 21 22 22 23 25 28 28 26 28 25 27 28 29 30
14 14 10 9 8 10 9 8 5 8 12 17 16 20 22 27 22 20 17 19 21 23 24 26 26 26 24 22 11 22 24 25
19 17 14 12 11 11 11 10 10 13 15 18 23 30 28 20 17 19 18 17 20 24 24 23 20 24 22 17 9 11 17 23
15 12 10 9 9 3 4 1 4 8 11 21 21 13 17 17 19 20 21 17 20 22 19 21 20 20 18 15 20 19 4 9
8 5 5 3 2 0 3 9 14 15 11 12 14 12 18 20 19 20 19 22 22 24 19 18 12 11 12 15 16 22 20 6
5 5 4 5 6 5 12 9 10 12 13 13 16 18 19 18 20 21 19 19 21 19 13 14 13 10 10 9 10 5 12 10
6 14 17 15 10 7 9 9 13 13 14 15 18 19 16 20 21 21 20 18 13 13 12 9 10 10 12 13 14 12 14 13
11 10 16 18 14 12 11 13 16 16 16 16 15 15 18 20 19 20 15 14 14 13 11 10 10 11 14 15 17 17 16 14

GFSFLT2_925_spd_009.txt.gz
Wind_Speed
18 17 15 14 13 13 13 12 13 12 11 9 11 9 10 11 10 11 10 9 12 11 14 15 13 11 11 13 15 10 8 8
17 15 15 15 14 13 13 14 14 14 12 10 9 7 7 6 8 8 9 11 11 11 14 15 13 12 15 16 15 13 10 10
17 15 14 16 15 14 16 15 12 11 10 6 5 5 3 6 6 6 8 10 8 11 13 10 9 10 18 14 12 13 12 12
21 16 13 13 12 11 12 11 10 9 7 7 7 4 2 4 5 6 9 9 6 12 12 12 11 14 16 16 14 13 12 10
19 16 13 10 6 9 10 12 9 8 7 5 4 2 6 4 5 7 9 9 9 12 11 13 13 15 18 18 14 14 12 11
23 19 17 12 9 10 11 12 10 12 6 7 4 4 1 3 3 5 6 9 10 10 8 13 16 14 17 18 16 16 14 11
23 20 19 15 11 11 10 7 9 6 7 4 2 3 2 0 1 3 6 9 10 10 13 19 18 20 20 19 17 18 16 14
21 17 11 13 13 9 7 6 6 6 7 1 1 1 1 3 7 9 10 13 14 14 20 21 21 21 23 22 22 22 22 21
31 9 3 8 14 9 9 6 5 3 3 5 6 2 4 6 10 13 15 17 19 21 21 22 25 25 25 25 24 26 26 28
34 23 16 10 11 11 12 8 4 1 2 5 3 5 4 7 9 14 18 21 24 25 23 24 25 22 22 24 24 25 27 29
27 14 20 12 13 12 11 5 3 1 6 9 8 7 6 8 15 19 20 21 21 21 21 24 27 29 29 27 27 26 28 28
27 25 18 21 9 12 7 6 10 14 11 13 10 9 9 11 20 27 19 21 21 21 22 23 26 27 28 27 26 25 24 27
24 20 14 12 9 12 11 10 9 13 13 9 6 7 9 13 26 17 12 13 18 21 23 26 28 24 25 26 25 29 24 26
26 23 22 18 17 16 12 8 7 4 5 8 12 16 19 15 12 13 14 15 19 20 21 23 21 22 15 17 5 15 18 20
23 20 18 16 11 6 4 5 6 10 13 17 19 12 11 11 12 14 15 15 17 19 20 23 22 19 10 4 4 3 11 9
17 12 10 7 7 6 7 7 9 12 14 9 9 11 12 15 16 18 19 21 20 18 18 15 15 11 6 5 5 2 2 6
12 8 7 6 6 4 1 6 5 4 7 8 10 15 19 17 18 22 22 21 21 20 17 13 12 9 9 6 8 10 5 3
6 8 11 10 9 4 7 6 7 9 7 9 13 18 16 18 17 16 16 15 11 10 11 10 10 9 6 6 7 4 4 4
1 5 6 9 7 4 6 8 8 9 11 14 15 14 15 14 17 18 18 18 17 16 13 11 10 10 11 16 15 15 17 18
6 6 6 10 10 10 10 12 14 14 15 13 9 8 11 17 17 18 17 17 16 17 20 22 21 23 25 21 22 22 23 19

GFSFLT2_925_spd_012.txt.gz
Wind_Speed
20 19 16 15 14 14 13 14 13 13 13 12 11 11 11 10 9 10 11 10 11 14 13 15 13 13 15 12 12 13 11 11
21 19 17 14 14 14 14 14 15 12 13 10 8 9 8 6 6 7 7 7 7 12 11 10 13 16 18 16 12 11 8 11
21 18 17 15 15 16 16 16 15 15 10 8 5 4 3 2 4 4 5 6 7 9 9 9 9 13 15 18 15 11 11 12
21 18 17 17 17 14 13 14 11 10 8 8 4 2 1 2 3 4 7 8 8 10 9 10 10 11 12 15 17 15 12 13
24 20 18 15 16 15 12 12 11 9 5 6 3 1 3 1 2 6 7 9 11 11 10 10 15 14 12 13 14 13 12 10
25 22 20 17 14 14 12 12 10 9 6 6 4 6 3 2 3 4 7 10 11 11 12 16 19 20 19 19 18 15 13 11
25 21 16 16 15 14 14 10 10 13 11 7 3 5 3 2 1 4 7 10 13 10 14 18 19 20 19 22 23 23 20 18
27 24 21 17 16 15 13 14 12 11 8 8 3 4 4 2 1 4 7 12 15 17 20 22 23 22 23 21 22 23 24 25
30 24 17 19 17 14 12 10 11 10 10 10 7 5 5 3 2 7 11 14 17 19 20 18 18 18 19 20 20 21 22 22
35 21 19 16 16 10 11 10 8 6 9 9 7 6 7 6 3 8 12 17 18 20 18 17 18 20 22 21 21 21 21 24
26 18 14 13 11 11 12 10 6 8 13 13 10 7 3 5 9 15 17 15 15 15 16 18 22 24 25 25 24 22 22 21
20 18 10 10 10 11 9 10 16 14 13 10 7 5 6 10 14 14 9 9 11 15 18 21 24 25 28 27 27 28 28 16
10 10 13 9 14 15 12 13 12 12 9 8 10 12 15 14 12 10 9 10 12 15 17 20 22 24 25 26 23 24 9 21
13 15 14 18 16 14 8 5 5 6 5 7 7 8 9 9 10 11 13 15 18 20 19 19 20 17 11 14 5 17 13 21
19 18 15 14 11 6 5 3 4 7 9 5 6 5 6 8 11 14 16 17 17 16 18 18 15 16 9 5 3 3 6 12
14 13 10 6 5 5 5 4 6 7 2 2 4 9 12 12 13 14 15 16 18 17 16 16 14 12 9 5 7 7 3 7
10 7 4 2 1 2 1 3 3 2 3 4 10 11 9 12 17 18 18 16 16 16 17 15 14 13 10 10 9 8 8 4
7 7 9 6 1 1 3 2 6 5 4 7 6 5 10 17 15 16 19 19 18 17 16 16 16 16 17 13 16 9 7 5
7 11 14 10 8 10 11 9 7 7 9 8 7 9 7 6 13 15 15 16 16 17 18 20 23 20 18 19 17 21 20 15
19 18 17 14 11 11 12 12 4 4 6 7 5 5 2 8 9 11 13 14 14 14 13 14 16 16 17 17 18 19 18 17

GFSFLT2_925_spd_015.txt.gz
Wind_Speed
21 19 17 15 14 14 14 13 11 12 12 13 13 12 12 12 12 12 12 12 14 14 16 16 17 18 20 20 16 13 14 12
20 18 16 16 16 15 14 14 13 12 12 10 9 10 8 7 8 8 7 8 8 9 10 11 13 15 17 19 19 16 13 14
20 19 18 17 17 15 14 14 13 12 11 8 5 5 4 3 5 4 5 5 5 5 7 8 10 13 14 15 17 19 19 16
22 20 19 19 18 17 16 14 13 9 7 6 4 3 1 1 3 3 4 6 6 7 7 8 11 13 12 12 12 15 16 18
25 21 20 21 20 18 16 13 11 8 6 4 3 2 2 1 3 4 5 7 9 8 8 10 15 16 15 15 14 14 13 13
26 24 22 19 19 18 16 16 14 11 8 6 4 3 1 2 3 5 6 8 10 10 11 14 17 18 18 18 18 18 18 17
29 27 24 20 20 19 17 15 15 12 11 7 5 4 3 1 1 2 4 6 7 10 13 15 18 20 18 18 17 15 15 16
29 26 22 19 20 19 16 14 14 14 12 9 7 7 5 4 2 1 2 5 7 10 11 14 13 13 16 17 17 17 17 15
25 23 19 19 18 18 17 15 12 10 12 10 5 4 5 3 2 2 6 9 12 14 13 12 13 13 15 18 19 20 19 19
23 16 9 9 7 6 10 9 8 9 9 5 3 4 5 2 3 9 13 13 15 15 13 13 15 17 20 21 21 21 21 23
22 10 8 6 8 7 1 7 8 9 12 13 10 6 2 6 11 14 15 11 12 14 15 17 19 20 22 24 25 26 23 21
14 9 5 3 2 6 12 18 19 15 13 9 3 2 6 10 11 12 10 11 14 18 20 22 23 23 22 20 24 22 20 9
9 9 8 4 18 15 14 15 10 10 6 5 9 7 7 8 9 9 12 15 17 19 21 23 24 22 18 22 23 10 18 18
16 16 14 14 12 7 6 7 6 6 5 6 4 6 6 7 9 11 12 16 19 19 18 19 18 20 12 14 4 13 7 22
19 18 16 13 10 6 3 2 1 3 2 1 3 3 5 7 10 10 11 12 12 14 15 15 15 17 15 5 3 3 6 12
13 11 7 7 5 5 4 4 4 3 1 5 4 3 6 10 12 16 18 15 14 13 13 14 13 13 14 5 10 13 4 8
9 6 3 2 2 2 3 4 3 4 5 6 5 7 9 13 23 23 9 11 14 15 14 13 12 13 13 13 15 14 18 4
10 10 9 3 1 1 4 8 7 4 4 5 9 17 21 22 13 5 10 13 14 12 13 12 12 12 13 14 10 7 11 11
13 11 13 11 9 10 9 8 9 11 11 12 17 19 19 15 6 5 10 9 9 9 9 9 11 13 12 12 12 15 14 15
13 11 10 8 8 10 11 12 9 11 13 16 18 21 18 13 8 7 6 7 7 8 9 10 10 12 13 14 13 14 10 12

GFSFLT2_925_spd_018.txt.gz
Wind_Speed
20 18 17 16 15 15 15 14 13 14 14 15 14 14 14 14 13 13 13 13 14 15 16 17 17 18 19 19 19 18 16 14
20 19 17 16 15 14 14 14 13 13 13 12 12 10 10 10 10 9 9 8 9 10 11 13 15 15 16 17 17 18 18 18
19 18 17 16 15 15 14 13 13 13 12 10 9 7 7 6 5 6 6 5 5 5 6 9 12 12 12 14 16 17 18 18
19 18 17 17 17 16 15 15 15 13 11 9 7 6 5 5 4 4 3 4 4 4 5 6 9 11 11 11 12 14 15 17
21 20 18 17 16 15 16 15 13 10 10 9 7 5 4 4 4 4 3 5 5 4 5 8 11 13 13 12 13 14 14 15
23 19 17 17 16 17 14 14 12 8 6 5 5 5 5 5 5 4 4 4 5 5 7 9 11 13 15 13 12 11 11 12
21 19 17 16 15 13 12 10 8 7 5 4 3 3 5 5 4 4 4 5 6 7 9 11 13 14 13 14 13 13 14 14
19 16 12 11 8 10 9 8 8 9 8 7 5 2 3 3 4 4 4 7 9 11 14 13 12 12 12 14 15 16 15 15
16 13 11 10 7 9 9 5 10 13 11 6 2 3 3 4 4 2 6 9 9 9 9 9 10 12 14 16 17 18 19 20
15 10 6 6 7 3 2 8 9 7 4 2 5 7 7 2 4 9 11 8 9 10 10 11 13 16 18 20 21 21 21 19
19 15 16 9 1 5 5 2 9 13 13 11 8 5 4 7 10 9 7 6 7 9 11 14 16 17 18 19 19 21 19 13
19 15 14 10 6 5 14 17 15 11 7 5 5 11 13 9 6 6 7 8 11 14 13 14 16 16 19 13 20 17 6 14
13 9 9 7 18 19 15 10 5 5 3 2 5 6 4 4 4 7 10 15 17 18 20 20 18 18 9 20 18 2 14 14
14 14 15 19 16 8 2 7 5 3 1 2 2 2 2 4 6 10 14 17 22 20 16 14 10 14 9 9 3 8 5 15
18 18 16 11 8 8 6 5 5 3 0 0 0 2 3 6 10 18 22 18 13 13 14 15 10 10 12 3 3 3 15 13
18 15 12 9 6 3 1 1 0 1 2 1 2 5 11 16 20 24 18 11 10 10 10 11 11 8 9 6 11 10 6 7
12 10 9 6 2 2 2 5 7 5 2 4 8 12 15 20 22 18 11 8 7 8 9 9 9 10 9 11 12 10 10 5
12 9 9 8 8 12 13 11 9 8 8 9 14 17 20 21 18 7 7 10 10 11 12 12 11 11 11 10 10 6 7 8
12 12 14 12 11 9 9 11 10 9 10 13 16 19 22 20 10 6 6 8 10 10 9 9 10 11 12 13 13 13 14 13
13 11 9 7 8 8 9 10 10 11 14 17 18 23 24 19 10 5 7 10 10 13 13 12 13 13 15 16 18 18 12 9

GFSFLT2_925_spd_021.txt.gz
Wind_Speed
18 17 17 16 15 14 14 14 14 14 15 15 16 14 14 13 12 12 12 12 13 14 15 15 15 15 16 16 17 18 18 18
17 17 16 15 14 13 13 13 14 14 14 14 14 13 11 10 9 8 7 8 9 8 10 12 12 12 13 13 14 14 15 14
17 17 16 14 14 13 13 13 14 14 13 11 11 9 7 6 5 5 5 4 4 4 5 7 10 10 11 12 13 15 15 14
17 16 14 14 14 14 13 12 12 11 10 8 6 5 4 3 2 2 2 3 3 4 6 7 8 10 12 13 13 14 12 12
18 16 14 13 11 11 10 10 10 9 7 5 5 4 3 3 2 2 3 5 6 6 6 8 10 12 13 13 13 12 12 12
16 12 11 11 10 9 8 7 6 4 3 3 3 3 4 4 4 3 3 5 6 6 7 9 12 13 13 13 13 13 12 13
13 11 10 9 6 7 5 3 2 3 4 4 2 3 4 5 5 4 3 4 6 7 8 9 9 10 10 11 12 12 13 13
13 12 10 10 6 6 4 4 6 9 7 5 3 4 4 5 5 3 3 5 6 7 8 8 9 9 10 11 12 12 13 16
14 11 9 9 6 6 8 12 9 17 12 2 2 3 4 4 2 3 6 6 5 4 5 7 8 9 10 12 14 14 14 15
12 13 15 15 14 10 2 11 12 12 5 2 5 6 3 2 4 4 2 2 4 7 9 9 9 10 13 14 14 16 14 10
19 21 19 12 11 9 10 7 1 7 9 9 7 3 1 3 2 3 2 4 7 9 8 10 10 11 14 15 14 18 15 6
25 20 14 4 12 8 6 9 12 10 7 7 6 1 3 2 4 4 5 8 9 12 12 9 7 10 15 13 16 15 10 5
20 15 8 7 12 16 17 14 8 6 7 3 1 2 4 5 6 8 12 16 16 14 9 10 12 14 15 17 16 9 3 8
13 9 13 15 20 19 11 13 8 7 4 2 3 4 6 9 11 15 19 13 11 9 10 10 10 11 11 14 5 9 4 12
16 17 21 21 16 10 9 6 6 2 1 4 6 9 9 11 17 18 16 10 6 7 8 8 10 8 10 6 5 5 18 10
22 19 16 13 9 5 5 4 3 4 5 7 7 8 11 13 14 15 11 6 5 4 6 7 7 8 8 5 9 13 7 9
17 16 13 10 10 11 12 13 11 7 5 4 6 10 13 14 15 15 12 7 5 5 5 3 3 4 6 8 9 10 11 10
17 17 19 17 14 14 14 12 8 5 5 6 10 12 16 20 19 16 9 4 4 4 5 5 3 5 6 6 9 11 13 14
18 18 17 14 13 12 9 8 7 7 8 10 14 15 16 17 20 14 7 5 15 8 8 7 7 8 8 9 10 12 14 16
16 14 14 12 10 8 5 5 6 7 10 12 15 17 20 23 19 14 12 14 12 10 11 11 9 10 11 10 12 13 12 12

GFSFLT2_925_spd_024.txt.gz
Wind_Speed
15 14 13 14 13 12 12 11 11 11 12 12 13 14 12 12 10 10 10 10 11 11 11 11 12 13 14 15 15 15 13 11
14 14 13 11 10 10 10 10 10 10 11 11 11 10 9 9 8 5 5 5 5 6 8 9 9 10 12 13 14 12 13 10
13 14 13 11 10 8 8 9 10 11 10 9 7 5 5 4 3 3 2 2 2 3 4 5 9 11 13 15 15 14 13 11
10 12 10 10 9 10 8 8 7 5 5 4 3 2 2 2 1 1 1 2 2 2 3 7 9 10 12 14 15 14 13 13
10 10 10 10 8 9 7 7 5 4 2 1 2 2 2 2 2 1 0 1 1 3 5 5 7 10 11 12 13 15 14 13
12 11 11 10 10 9 8 6 3 2 1 2 3 3 2 3 2 1 0 1 2 3 3 4 6 8 10 11 12 13 13 13
12 11 11 11 12 10 9 6 3 3 4 5 4 2 2 3 2 1 1 3 4 5 6 8 9 10 11 11 11 12 12 13
12 11 12 11 13 12 9 7 4 2 8 13 4 3 3 3 2 1 2 4 5 6 7 9 11 12 13 12 12 14 14 14
13 13 13 13 13 13 11 9 10 15 16 10 7 5 7 3 2 2 2 2 4 6 7 10 12 13 15 16 16 17 18 17
16 15 14 14 15 13 6 9 16 14 5 2 3 4 4 3 0 2 3 5 5 7 9 11 13 15 17 19 21 22 23 21
19 19 20 17 11 4 8 11 10 6 7 8 8 6 3 0 3 4 5 5 7 8 11 13 16 18 19 22 22 22 23 21
20 21 20 17 13 15 9 7 9 8 7 5 4 3 3 4 4 5 6 8 10 12 13 14 16 17 19 22 19 22 21 16
20 20 15 12 12 12 11 11 8 6 5 5 4 3 4 5 4 6 9 11 11 10 11 14 16 16 19 21 22 19 10 11
18 16 12 12 11 12 11 10 7 7 6 4 4 4 4 4 5 8 10 10 10 10 11 14 17 14 15 20 10 17 20 8
16 14 14 14 14 10 8 8 7 5 2 2 3 2 2 4 7 9 10 12 13 11 11 10 13 14 11 13 10 10 19 21
15 16 15 11 8 7 5 3 4 3 3 2 0 2 5 8 10 12 13 13 12 11 9 9 10 14 13 13 13 15 10 13
15 14 12 11 10 10 9 9 7 4 2 3 5 7 10 12 13 14 14 12 10 7 7 11 12 12 14 13 13 14 15 15
14 14 14 13 12 11 10 9 6 3 3 6 8 11 13 15 15 17 16 13 10 8 12 11 13 12 11 11 12 14 16 17
15 15 15 12 10 9 8 7 6 4 6 8 11 14 16 18 18 19 18 15 11 13 12 14 14 12 12 13 12 14 16 18
15 14 13 11 9 7 6 4 3 4 6 9 11 12 13 16 18 18 16 14 13 15 15 13 13 13 13 14 15 16 17 18

GFSFLT2_925_spd_027.txt.gz
Wind_Speed
24 20 18 16 15 15 14 14 13 13 12 12 12 13 11 10 9 9 8 7 7 10 11 11 13 14 16 17 13 13 16 11
23 21 17 15 15 14 14 13 12 13 12 12 11 10 8 7 5 3 3 3 4 5 7 8 8 9 14 17 16 15 15 14
18 20 16 16 14 14 12 12 12 12 11 10 7 5 4 3 0 1 2 3 4 3 3 5 7 4 10 17 15 15 14 14
16 17 15 14 13 13 11 11 10 9 9 5 2 2 2 2 1 2 3 4 5 4 6 7 10 10 13 14 14 15 15 14
13 14 13 12 12 12 12 10 10 7 5 1 4 1 1 4 3 3 3 4 4 6 6 8 10 11 12 13 14 16 15 14
14 13 13 11 12 11 11 11 8 6 5 5 3 2 2 5 6 4 4 4 6 6 9 8 10 12 13 15 15 16 15 15
14 14 14 14 13 13 11 10 6 6 6 4 2 2 5 5 6 8 8 7 8 9 11 11 13 14 14 15 16 17 18 17
16 15 15 15 14 13 11 9 8 8 6 6 5 6 3 2 3 6 12 8 9 10 10 12 13 15 16 17 18 20 20 19
18 17 17 17 17 15 11 6 5 4 5 4 5 6 3 1 4 6 6 6 6 8 9 11 13 16 18 20 20 22 23 23
17 17 18 19 20 16 12 1 16 9 5 1 3 7 5 3 5 4 6 6 7 9 11 13 16 18 21 22 23 25 24 22
18 19 19 21 22 12 14 16 11 8 3 5 3 2 3 2 0 3 4 6 8 11 13 16 18 21 24 23 24 25 22 24
18 22 19 24 16 9 10 7 4 5 4 3 4 4 3 1 1 3 6 9 12 12 14 16 19 21 22 22 24 23 24 18
19 22 19 16 9 12 10 10 10 8 6 6 5 4 3 2 3 7 9 11 12 13 15 18 20 20 21 22 22 26 21 22
17 17 18 11 11 15 14 13 10 9 7 6 4 3 3 3 5 7 9 12 15 15 16 18 18 17 19 18 11 19 20 22
16 17 17 15 15 14 13 10 8 8 6 4 2 2 2 4 6 10 12 14 16 16 16 15 18 18 17 17 11 11 21 23
16 16 16 15 14 12 12 11 11 5 3 2 1 1 4 7 9 11 13 16 16 16 15 13 16 18 19 18 19 20 12 13
16 16 15 13 9 9 8 4 5 4 1 2 4 6 6 9 12 13 15 17 17 16 15 15 18 17 17 20 19 18 19 16
17 16 14 14 12 10 9 8 5 3 3 6 6 8 9 10 13 15 17 18 18 16 14 18 14 16 22 18 16 16 16 16
18 17 16 14 13 12 11 9 8 5 5 4 6 9 10 10 12 15 17 17 18 16 15 16 18 20 20 17 14 15 17 18
18 17 16 14 13 11 9 6 4 4 2 5 7 7 8 10 12 16 17 17 17 13 16 19 18 18 17 17 15 16 16 17

GFSFLT2_925_spd_030.txt.gz
Wind_Speed
25 23 23 22 19 19 17 16 16 17 16 16 16 15 14 12 11 11 10 10 10 11 12 12 12 16 21 19 19 22 19 12
21 22 24 22 20 18 17 15 16 17 17 15 14 13 11 10 9 6 7 7 7 7 8 9 8 8 17 18 17 18 19 17
21 20 20 21 20 18 16 15 16 17 15 13 12 9 9 7 5 4 5 4 5 5 8 8 12 10 9 19 17 16 21 16
31 25 20 21 18 17 16 18 16 14 10 7 4 6 7 1 2 4 4 6 4 6 7 9 10 11 13 14 15 14 18 17
22 26 24 21 20 17 16 15 14 11 7 6 6 6 2 3 2 4 5 4 5 8 10 7 12 10 9 11 11 13 16 15
24 21 21 18 19 18 15 18 15 11 7 6 4 2 3 7 5 7 8 13 10 8 11 10 11 12 12 13 13 14 15 17
27 22 20 21 17 17 22 18 13 11 7 4 5 5 5 3 6 4 6 7 11 10 12 11 12 14 15 16 17 15 18 17
22 21 20 18 19 18 19 15 14 11 8 1 1 3 2 3 2 4 3 2 3 7 11 14 12 14 16 17 18 18 17 21
23 22 22 24 22 20 18 14 10 5 2 3 2 6 5 2 3 1 4 9 11 11 11 12 14 16 16 18 20 18 19 23
24 22 24 26 23 20 18 12 12 6 5 4 4 6 5 5 2 3 5 9 7 10 11 12 16 17 18 21 17 20 21 20
21 22 26 26 22 18 8 6 2 4 4 7 8 7 7 8 8 4 6 5 7 8 10 12 15 18 20 21 20 20 19 23
22 19 19 28 21 9 4 2 1 4 8 7 10 8 8 6 4 4 5 5 7 11 11 12 14 18 18 19 17 15 19 23
26 21 18 19 13 6 6 6 9 10 10 9 8 7 7 4 5 5 5 6 8 11 12 13 15 15 18 18 16 19 18 18
27 22 18 17 12 10 9 12 11 11 9 9 7 6 5 4 3 2 5 8 11 11 14 16 12 14 19 19 5 13 14 23
22 20 20 18 13 14 15 14 15 13 10 11 9 6 3 2 3 5 7 9 12 14 15 13 11 15 16 13 5 4 15 16
21 22 21 17 18 19 19 15 14 12 15 15 8 4 1 3 6 9 8 10 12 13 13 14 14 14 16 13 21 22 6 8
17 18 19 19 16 18 16 17 15 12 10 7 3 4 4 4 5 5 9 12 14 17 17 15 12 13 9 13 18 18 14 8
20 22 18 16 11 10 9 14 13 13 9 3 3 1 4 5 6 9 11 12 15 17 17 13 11 13 17 15 19 12 11 9
21 19 18 16 14 12 12 13 11 8 5 2 3 4 5 6 7 9 11 14 16 18 18 13 15 15 19 18 18 15 15 14
20 20 20 18 16 16 15 13 10 8 7 3 2 4 4 6 7 9 13 15 17 18 19 16 17 17 20 18 20 14 14 20

GFSFLT2_925_spd_033.txt.gz
Wind_Speed
30 26 21 23 23 22 22 22 21 21 21 20 20 20 18 17 15 14 13 13 13 14 13 13 14 20 21 20 16 25 11 11
25 24 19 23 21 20 21 22 21 21 21 19 18 17 15 13 11 11 10 10 9 10 10 11 16 7 18 17 13 18 20 13
19 17 21 22 22 21 21 21 21 21 21 19 16 15 13 10 9 8 8 8 9 9 10 11 11 12 11 12 15 13 19 18
21 19 24 24 22 21 22 23 21 20 17 14 12 11 9 7 7 7 9 9 7 10 6 9 10 12 10 12 11 9 12 17
26 22 26 24 24 24 25 23 20 16 11 10 10 10 10 4 5 5 2 6 6 9 11 8 11 13 12 12 12 13 11 14
25 28 27 25 26 26 24 22 17 15 13 9 9 10 12 10 12 9 14 14 9 8 7 5 6 9 14 13 14 14 13 13
31 32 28 26 26 23 20 24 20 16 13 9 10 10 12 10 10 9 7 4 3 6 7 10 9 9 10 12 13 15 12 13
30 26 24 24 24 28 28 22 20 16 11 9 8 9 9 7 8 5 1 6 6 6 8 8 7 8 10 12 14 11 12 16
28 27 21 29 27 25 24 22 19 15 6 2 6 9 10 9 6 4 4 4 5 6 4 3 4 8 10 13 12 15 18 15
29 24 24 25 23 21 19 16 14 9 7 6 6 8 8 8 6 5 6 7 5 4 3 5 9 10 12 11 16 16 13 17
29 26 28 26 23 21 15 11 8 9 10 11 12 11 9 7 6 7 6 4 3 4 8 11 7 9 11 12 11 13 16 15
33 32 29 27 23 17 9 8 7 9 14 15 14 15 10 6 7 7 3 0 4 8 8 6 11 11 12 11 12 13 9 12
35 35 30 28 24 15 12 13 15 17 17 16 12 12 10 12 11 7 4 3 6 6 8 11 11 12 10 18 16 3 13 13
35 33 30 28 23 13 9 15 16 19 18 16 13 14 9 6 4 1 3 4 4 9 13 12 7 10 12 14 3 10 15 21
34 31 25 28 24 14 15 16 17 20 18 17 15 11 9 5 5 1 3 4 8 11 10 8 8 11 8 5 3 2 8 4
32 29 25 24 23 21 25 26 27 21 21 19 14 10 8 3 4 3 4 4 7 9 13 15 16 11 7 7 11 14 3 4
25 25 22 25 23 26 29 28 19 21 21 17 13 11 8 9 6 2 2 6 9 11 13 15 13 6 4 9 13 13 15 4
25 24 25 24 23 27 29 28 27 27 22 17 12 13 9 5 1 4 7 10 11 13 14 15 6 9 13 11 10 9 9 6
21 25 23 23 21 21 26 27 25 22 17 14 14 10 6 3 4 6 8 10 10 12 13 14 17 16 13 14 16 16 16 9
24 23 27 23 22 22 23 23 22 16 15 14 11 7 4 0 5 4 7 10 12 14 14 15 13 10 13 15 13 16 19 16

GFSFLT2_925_spd_036.txt.gz
Wind_Speed
33 33 29 26 21 20 23 24 24 25 25 26 26 25 24 23 21 19 17 17 17 17 17 14 17 16 15 20 20 16 13 15
31 27 23 22 18 20 23 24 25 25 24 24 24 22 20 18 17 16 14 14 15 14 14 15 13 10 13 13 14 14 14 13
21 28 20 21 21 21 22 23 24 24 24 22 20 19 16 15 13 13 13 14 13 12 10 10 12 11 11 10 11 11 14 13
34 33 24 26 25 24 24 24 24 23 21 19 17 16 13 12 13 10 12 11 9 8 9 9 10 11 11 12 12 9 9 12
27 23 28 26 26 25 24 24 22 19 15 14 13 11 10 9 11 8 9 7 7 8 9 12 12 11 10 10 11 9 9 9
26 26 27 25 25 25 25 24 20 14 10 10 11 12 12 8 11 10 13 13 14 13 10 9 8 11 11 10 9 9 8 11
29 25 27 26 26 26 24 22 17 16 14 14 15 15 17 16 19 15 14 12 10 8 7 8 8 8 9 10 12 9 11 13
30 29 28 27 27 26 22 18 20 17 15 15 14 14 15 13 15 14 11 7 6 5 6 6 7 5 7 10 11 12 14 14
28 30 29 26 25 22 22 23 20 19 16 15 14 15 13 13 11 9 8 7 5 6 6 5 4 7 10 11 11 13 12 15
29 32 28 27 24 27 26 23 19 15 10 10 13 12 12 12 10 9 8 7 6 6 5 6 9 11 10 8 9 8 9 8
32 30 31 31 30 28 24 21 17 10 8 11 13 14 14 11 10 10 8 7 6 5 6 8 8 8 4 3 3 6 6 10
32 32 34 32 29 25 22 17 11 9 11 15 16 16 15 12 11 9 5 4 3 5 6 6 7 4 5 6 8 5 6 12
36 35 34 33 30 25 19 15 12 14 16 16 17 16 14 10 10 9 4 1 3 2 3 6 3 5 3 11 4 3 2 14
39 38 36 33 31 26 18 14 14 18 18 16 14 13 14 12 9 5 1 2 2 4 6 5 1 5 3 2 2 4 2 20
41 41 38 34 29 20 12 14 17 17 19 19 18 15 12 10 7 4 2 2 2 2 3 5 7 5 1 0 1 3 5 4
37 38 35 32 27 20 22 26 24 26 25 21 19 14 12 10 9 9 9 6 3 2 3 5 7 10 6 5 6 6 2 4
39 35 32 31 32 25 26 26 28 28 26 25 21 18 14 12 14 14 10 5 1 2 5 8 8 5 5 6 8 7 9 5
37 34 34 30 33 30 28 32 31 30 29 27 22 19 17 15 12 7 5 1 5 7 7 7 7 8 9 9 8 6 7 8
34 34 32 30 29 30 30 37 35 34 33 27 22 22 17 14 9 2 3 5 8 9 10 8 8 7 7 8 9 12 13 14
31 31 30 28 27 28 32 33 31 31 29 24 24 20 16 8 2 3 2 5 7 9 9 10 6 5 8 11 13 15 16 15

GFSFLT2_925_spd_042.txt.gz
Wind_Speed
31 32 31 24 24 26 25 27 29 29 29 28 29 28 27 26 25 24 22 21 21 21 20 19 19 17 16 16 15 15 16 16
30 39 31 19 22 21 23 25 27 28 28 27 26 25 23 22 20 20 19 18 19 18 17 16 16 15 14 13 12 12 13 11
32 33 26 22 21 18 20 21 25 25 25 25 24 22 20 18 16 16 16 15 16 16 16 16 16 14 13 11 10 11 9 9
42 28 24 25 23 17 19 21 23 24 24 22 21 19 18 17 14 13 13 13 13 14 15 16 16 13 11 10 10 9 7 7
33 30 25 23 22 20 22 21 22 22 20 19 18 16 16 14 14 12 12 10 13 15 15 13 13 12 13 11 9 7 7 7
34 35 29 15 15 18 19 22 21 21 20 18 15 14 14 13 12 11 10 12 15 14 11 12 11 10 9 8 9 7 7 7
30 33 19 17 15 16 19 20 20 19 18 16 14 13 13 12 11 13 14 15 13 12 11 10 9 8 7 7 8 9 10 12
36 26 16 16 14 15 17 19 18 17 16 16 15 14 13 14 14 16 15 14 12 11 10 8 8 5 5 6 7 9 11 13
34 22 17 16 14 17 17 19 17 17 17 15 15 15 14 16 17 16 14 13 12 10 9 6 4 4 5 6 6 7 8 8
28 22 20 19 16 18 19 20 18 18 16 15 15 16 16 18 17 15 14 12 10 8 6 5 3 4 5 5 5 3 4 4
24 22 20 20 18 19 21 21 20 17 15 15 17 17 16 16 16 16 14 12 10 6 5 3 5 5 3 2 2 3 8 7
23 21 19 21 19 20 21 21 21 18 17 15 15 16 17 18 17 16 16 12 9 6 3 4 4 2 3 2 6 7 7 5
27 27 25 25 24 24 24 26 23 19 16 14 14 17 18 18 18 18 14 10 7 3 4 3 1 2 3 5 1 11 6 4
30 31 30 29 30 29 28 28 25 21 16 15 16 17 19 20 18 16 12 8 4 4 3 3 6 3 1 2 3 3 7 7
35 34 33 32 31 30 26 26 21 18 18 19 19 20 20 19 17 15 11 6 6 5 5 5 4 1 3 3 1 2 4 3
33 33 33 33 33 34 34 32 23 25 25 23 22 21 21 19 17 13 10 9 9 7 3 2 4 4 2 3 3 2 1 4
32 31 32 33 35 36 37 31 29 24 25 24 24 24 22 19 16 15 15 13 9 2 4 6 7 2 2 2 4 5 6 5
32 33 34 35 35 37 36 33 28 22 26 29 27 24 20 18 18 19 16 10 5 3 5 7 6 2 3 4 6 5 4 7
31 33 33 35 37 36 36 33 26 28 29 32 29 28 26 26 25 23 16 5 4 5 5 3 4 3 3 5 6 6 8 12
30 29 29 34 38 38 36 35 31 31 30 32 34 34 31 28 25 19 9 8 6 4 6 4 4 5 7 8 8 8 9 11

GFSFLT2_925_spd_045.txt.gz
Wind_Speed
33 28 25 21 25 35 34 34 32 31 35 35 35 33 31 30 28 27 26 26 26 25 23 21 20 18 17 15 14 14 15 13
37 35 31 25 17 32 35 32 30 29 32 34 32 30 29 26 24 21 21 22 21 21 20 19 17 15 14 12 11 12 13 12
46 39 30 21 17 24 31 28 26 27 28 31 29 26 24 20 20 21 19 18 19 18 17 16 15 13 11 10 9 11 10 9
43 43 36 20 16 21 26 26 26 30 29 28 26 23 19 18 17 17 16 18 17 16 15 14 12 12 10 8 10 8 8 8
30 34 35 25 25 20 20 24 26 26 26 26 23 20 18 16 16 15 16 17 18 16 14 12 12 11 9 9 7 6 7 7
35 34 34 21 20 18 22 24 26 26 24 21 20 17 16 15 15 14 14 16 16 15 15 13 11 9 7 7 6 7 6 5
27 29 26 23 18 19 20 22 24 23 20 19 17 16 15 14 13 14 15 16 16 15 13 10 7 7 6 6 6 6 7 8
20 24 23 19 18 19 21 23 23 20 18 16 15 14 15 14 14 15 17 17 15 12 9 6 5 5 4 5 5 6 8 9
28 25 19 17 17 19 20 20 20 19 18 16 16 15 15 15 16 18 18 17 14 11 8 6 4 3 3 4 5 7 8 8
27 21 17 17 16 17 18 19 18 16 17 16 16 15 16 17 19 19 18 16 13 10 8 6 4 3 3 3 3 3 6 4
27 21 19 18 16 16 18 19 17 16 15 15 15 16 16 17 18 19 18 15 12 10 8 4 4 3 3 2 2 1 4 5
25 24 21 19 18 17 19 20 19 18 17 16 16 16 17 17 18 18 17 15 13 10 6 5 4 2 0 2 4 6 8 7
26 25 25 23 22 20 18 18 22 20 19 18 17 18 19 19 19 19 18 15 12 9 7 5 2 2 2 5 4 7 7 6
24 26 25 26 24 23 17 20 21 21 20 18 17 17 19 20 21 21 20 17 13 10 7 5 2 3 3 3 2 5 10 10
26 26 26 26 24 22 21 21 19 18 21 21 21 20 21 22 23 22 19 16 13 10 6 4 3 7 8 4 2 2 3 5
28 27 27 27 28 24 26 21 19 19 25 23 22 22 22 23 23 21 19 16 14 11 7 5 5 7 6 8 5 4 3 4
29 27 28 27 29 27 26 23 20 19 25 22 23 24 24 24 23 22 21 19 16 11 8 7 9 8 8 3 5 5 5 6
29 28 27 27 28 31 30 28 27 24 22 23 25 23 25 26 26 25 23 22 18 11 9 8 6 9 5 4 5 6 5 6
26 26 26 28 29 32 33 32 30 27 25 27 27 26 28 30 30 28 28 23 15 13 9 7 10 9 6 7 9 7 6 7
25 25 25 26 29 32 29 31 32 31 30 29 29 34 32 30 32 31 29 24 19 9 10 11 10 9 7 9 8 8 6 6

GFSFLT2_925_spd_048.txt.gz
Wind_Speed
36 29 27 26 24 23 28 34 35 36 36 35 33 30 30 28 29 29 29 28 26 24 22 20 17 15 15 14 14 16 12 12
41 38 36 28 28 23 26 33 34 32 33 33 31 30 30 28 28 28 28 26 24 22 21 18 17 14 12 12 12 14 10 9
35 38 39 25 28 23 22 30 30 31 30 29 28 25 24 21 21 24 23 22 21 19 18 16 14 11 10 9 11 8 8 8
35 36 42 33 25 26 19 18 26 31 27 24 20 21 18 20 19 20 21 19 17 17 16 13 11 7 7 9 7 7 7 7
29 39 36 35 26 22 16 14 24 30 20 16 16 17 19 17 17 17 17 16 14 14 11 7 7 6 6 6 7 7 8 7
37 42 37 30 29 22 23 26 25 23 17 15 15 16 15 15 14 14 15 13 13 10 9 9 8 8 7 7 8 7 6 6
25 28 33 33 30 26 23 13 17 18 16 14 13 13 14 14 13 13 12 12 11 10 10 8 8 7 6 6 6 6 7 7
28 27 34 36 31 28 21 17 16 15 16 14 12 11 12 11 12 12 12 12 11 10 9 7 6 5 4 4 5 5 5 5
28 29 26 30 22 16 15 16 16 16 14 13 11 11 11 11 11 12 11 11 12 11 9 7 6 4 3 3 4 3 3 2
25 24 24 20 17 17 17 16 16 15 15 14 12 11 12 12 11 11 12 13 11 10 8 6 4 3 2 2 2 2 3 2
24 21 19 17 14 15 15 18 18 17 14 12 12 13 14 12 12 13 15 12 11 9 8 6 4 3 3 1 1 3 2 2
26 23 19 18 16 16 17 19 18 15 13 12 12 11 13 13 13 14 15 13 12 10 9 6 5 4 3 2 3 5 5 6
28 26 21 18 19 18 18 19 18 18 15 13 13 14 14 14 14 15 15 14 12 11 9 8 6 4 3 4 5 5 9 10
28 27 23 22 20 19 18 19 19 18 16 15 15 15 15 16 15 17 16 14 13 12 10 8 6 4 1 3 4 7 10 12
30 29 25 23 21 19 17 16 15 19 17 15 19 20 19 17 18 19 18 16 15 13 11 10 8 5 3 3 3 4 6 9
29 28 27 25 23 22 23 22 21 20 19 18 17 17 18 17 18 22 20 17 16 14 12 11 8 6 6 10 12 9 4 5
29 28 27 26 26 25 22 22 19 17 19 18 19 18 17 17 19 21 22 19 17 17 16 13 10 7 10 7 11 11 10 8
29 29 28 27 26 26 26 24 24 21 20 20 19 17 17 19 19 20 20 19 20 19 17 15 13 13 12 12 12 9 8 9
27 28 29 27 28 27 28 27 24 24 22 22 20 20 25 28 26 23 22 21 20 19 19 14 12 12 12 11 11 11 9 9
26 28 27 28 28 28 27 26 23 25 24 24 25 27 32 29 29 26 22 22 25 24 17 11 9 12 10 9 10 11 10 9

GFSFLT2_925_spd_051.txt.gz
Wind_Speed
32 26 22 22 26 28 29 31 31 31 31 32 30 29 27 27 28 28 27 26 23 21 19 18 16 15 15 17 17 15 13 13
35 30 22 21 25 28 25 29 31 32 31 31 29 28 25 26 27 28 28 25 22 19 18 16 15 14 14 14 11 13 11 11
39 38 36 21 25 27 22 24 29 32 28 27 25 25 24 22 23 27 24 22 20 18 16 14 13 12 13 12 11 9 9 10
34 34 34 29 25 29 30 24 25 26 27 26 21 21 17 19 23 22 20 19 18 16 13 11 10 7 4 9 8 8 8 7
38 38 35 38 26 27 27 21 19 25 24 21 19 13 19 17 20 17 18 17 12 12 9 4 6 5 5 6 6 6 6 6
27 32 39 32 34 29 26 20 20 20 21 18 18 14 18 16 16 13 14 12 12 9 7 7 6 7 5 5 5 5 4 5
34 35 31 35 26 29 22 20 22 21 12 15 18 16 15 15 13 14 13 12 12 10 9 7 6 5 4 3 4 5 6 5
25 22 32 22 22 26 23 20 17 11 14 14 16 16 14 12 13 12 12 12 11 10 9 7 6 5 3 3 4 3 3 2
22 24 22 21 26 23 20 20 14 14 13 15 15 14 14 12 13 12 12 12 11 10 9 8 7 5 2 2 2 3 1 1
26 27 29 30 27 25 19 17 18 17 17 16 16 14 12 13 13 12 12 12 12 11 10 8 7 5 4 3 1 1 1 1
29 27 30 30 23 22 21 19 19 19 18 18 17 14 13 14 13 13 15 14 13 11 10 9 8 7 6 4 3 3 3 3
29 28 30 26 21 18 16 16 20 20 18 16 15 15 16 15 14 15 15 13 12 11 10 9 9 7 6 5 5 4 4 5
28 29 30 25 22 20 20 21 20 20 18 17 17 16 15 16 16 15 15 13 13 12 11 10 9 7 7 10 9 8 7 8
27 27 25 24 20 20 19 19 20 20 19 19 17 17 16 17 16 15 15 14 14 15 14 12 12 10 8 4 5 5 10 13
29 29 26 24 22 21 18 17 18 21 21 20 18 17 17 17 16 16 17 17 18 17 17 16 14 11 9 6 4 5 9 12
29 29 28 26 24 21 21 20 21 21 21 20 18 19 20 19 18 18 18 19 19 21 18 18 16 13 10 9 8 7 4 5
31 30 30 29 28 27 24 24 22 20 20 20 21 19 19 19 19 19 18 19 20 20 18 18 15 13 12 7 8 10 12 11
31 31 32 32 31 30 28 25 23 21 22 19 18 19 19 20 21 21 20 21 20 20 19 17 15 13 10 8 12 10 11 12
32 33 34 33 30 30 29 28 25 24 22 21 20 21 21 23 24 25 26 24 21 20 20 19 18 14 8 9 9 10 12 14
33 33 33 29 25 22 26 30 28 27 23 21 23 25 25 24 29 31 29 27 23 22 22 20 14 10 8 9 5 10 9 15

GFSFLT2_925_spd_057.txt.gz
Wind_Speed
24 29 30 27 25 25 25 25 26 29 30 31 33 32 32 28 28 28 26 25 25 23 23 22 21 21 23 25 21 20 20 19
31 30 31 30 32 25 25 22 25 27 28 28 31 31 29 27 27 27 25 24 23 22 22 22 22 21 18 22 19 18 14 15
33 37 36 35 33 32 22 22 21 25 26 29 31 30 27 25 26 25 24 22 20 20 21 22 20 17 16 18 15 14 14 14
33 34 33 30 30 36 30 26 23 25 26 28 28 27 25 25 24 23 22 20 17 17 18 17 13 12 13 14 14 11 10 12
30 32 32 33 33 36 34 28 27 27 26 30 30 26 22 25 22 21 21 19 16 15 13 8 9 11 11 11 14 11 8 10
31 33 33 35 35 36 36 33 29 26 27 28 27 24 27 23 21 19 19 17 15 12 9 11 9 7 10 10 11 9 6 9
28 34 37 32 33 34 36 32 31 30 27 22 22 23 25 23 20 18 16 14 12 10 11 8 6 9 9 7 8 6 7 4
32 33 38 41 39 36 34 24 28 30 26 21 21 25 20 19 18 17 16 13 12 10 12 7 7 7 7 7 8 7 4 4
33 38 34 36 35 34 30 29 32 26 20 20 19 21 18 18 17 18 14 16 14 15 11 8 10 8 6 5 7 7 6 4
28 37 39 39 38 37 34 32 28 30 19 24 22 21 17 17 16 21 18 19 16 17 16 13 12 10 9 8 9 9 6 7
28 30 37 41 38 38 39 31 30 33 30 21 19 18 16 19 17 19 16 19 20 17 17 15 14 15 15 14 12 11 8 7
32 28 35 34 29 28 29 31 24 32 24 19 20 21 20 19 21 20 21 18 19 18 18 17 15 17 15 15 17 14 11 11
34 30 33 37 33 26 27 28 28 23 23 24 25 25 23 25 24 22 21 24 23 21 20 19 18 15 17 8 16 17 19 17
33 32 33 34 32 28 25 25 27 27 29 27 29 30 29 29 27 27 26 24 24 25 26 23 19 20 11 6 2 10 19 20
34 33 35 33 32 27 26 27 26 30 32 32 27 31 28 29 28 29 28 28 28 28 30 27 25 23 23 11 2 4 4 13
35 33 36 38 34 30 31 27 26 29 32 36 35 34 31 31 30 27 28 31 29 29 29 29 28 29 22 27 13 3 3 1
36 37 38 40 39 35 33 29 31 33 35 35 34 37 35 35 32 30 30 31 31 29 30 29 31 23 22 12 18 9 5 2
38 38 40 42 42 43 38 33 35 35 34 34 36 35 37 35 34 33 33 32 30 32 28 29 31 29 21 21 14 6 6 6
40 40 40 43 44 44 41 41 38 38 38 35 34 33 35 39 36 35 33 31 29 29 28 27 27 27 25 19 18 12 10 8
42 40 38 42 41 43 45 44 41 37 39 31 32 35 36 40 39 36 33 32 30 28 26 23 22 24 21 18 17 13 11 12

GFSFLT2_925_spd_060.txt.gz
Wind_Speed
25 22 19 26 36 36 22 26 33 34 33 33 33 33 32 31 30 29 27 26 25 24 23 25 26 21 19 20 20 20 20 21
25 30 33 34 31 35 33 23 29 33 33 33 32 31 30 30 29 27 26 25 25 23 22 21 25 24 19 18 18 17 18 18
32 36 36 35 37 35 29 29 28 29 32 34 32 30 29 29 28 26 24 23 24 24 21 18 21 22 19 16 15 15 15 16
38 39 43 42 38 38 37 32 31 31 33 33 32 31 29 29 27 24 22 22 23 24 20 16 15 14 16 16 13 13 13 14
37 41 45 38 35 36 35 36 35 33 36 34 32 32 30 29 27 24 22 18 20 19 13 10 14 12 11 12 12 12 12 12
30 36 34 34 36 35 35 37 37 35 35 36 34 34 32 28 25 23 20 18 17 14 12 13 10 10 9 11 9 9 8 9
29 31 34 35 37 34 33 36 36 36 37 37 36 33 31 24 23 21 20 17 15 12 12 11 9 11 11 7 8 8 7 7
27 32 33 34 36 38 33 32 28 36 34 31 33 32 28 24 22 21 20 17 14 11 12 11 9 8 9 8 7 6 5 6
27 30 30 35 34 35 34 29 32 33 31 30 29 28 27 25 22 21 19 17 15 13 14 12 10 10 8 7 8 6 6 7
25 28 34 36 37 37 32 30 32 30 28 25 27 22 23 23 20 20 19 19 18 16 20 16 12 13 11 10 10 10 8 8
23 29 32 35 36 29 28 35 28 28 26 23 24 21 19 18 21 19 20 22 22 22 22 19 17 16 15 13 13 14 12 10
29 35 36 34 32 32 29 30 30 21 29 27 20 24 19 19 20 17 21 20 24 25 24 21 19 17 16 17 16 18 16 15
27 28 27 30 32 27 22 24 28 27 30 36 18 24 22 21 20 21 20 21 24 25 24 22 20 17 15 16 18 18 18 19
29 31 32 31 29 31 27 28 30 31 30 29 25 23 23 25 24 25 25 23 24 27 27 25 23 21 15 5 3 11 22 24
33 34 39 40 38 36 29 28 29 32 34 33 29 23 27 29 28 30 28 27 27 30 30 29 28 24 24 10 2 4 3 16
35 35 38 40 41 34 32 29 27 31 29 33 32 30 31 32 34 34 33 32 33 33 33 33 32 27 23 24 11 4 3 2
36 36 35 38 40 34 33 30 29 31 32 34 38 38 35 34 38 36 35 34 36 36 35 35 36 29 28 13 20 12 8 4
33 36 33 37 38 38 35 34 32 31 35 35 39 39 39 41 39 40 37 36 36 37 37 34 36 34 29 26 22 13 12 7
36 38 36 40 42 43 41 41 39 34 37 34 31 37 41 44 43 45 43 40 38 37 35 34 31 32 32 28 26 25 18 12
42 42 41 42 44 45 43 40 38 42 39 33 38 43 43 44 42 41 40 35 36 31 34 31 30 26 25 26 26 25 23 24

GFSFLT2_925_spd_063.txt.gz
Wind_Speed
23 27 31 26 34 35 36 32 30 31 31 31 34 35 35 35 33 32 32 32 31 28 27 27 26 23 23 23 22 21 23 24
25 36 37 39 34 37 37 36 29 32 33 32 33 34 33 33 33 31 30 31 30 28 25 24 23 21 21 21 21 20 20 22
23 34 37 40 40 30 36 30 28 31 32 33 32 32 32 32 32 31 30 31 30 27 26 25 24 21 19 18 18 19 18 19
32 37 41 44 39 37 42 39 27 26 31 34 33 32 32 32 30 30 29 29 28 25 24 23 22 20 18 16 16 17 16 18
30 40 40 44 42 41 41 40 37 34 34 36 34 32 31 31 31 29 29 28 26 22 19 18 17 17 16 14 15 15 16 16
22 35 34 34 37 36 33 34 40 44 42 37 37 36 33 32 30 29 28 26 24 17 17 16 14 14 13 13 13 13 14 14
29 30 32 33 28 33 34 35 38 41 40 39 38 37 34 31 29 26 25 23 19 16 17 15 13 12 11 10 11 12 12 11
24 23 30 32 32 33 34 38 37 39 39 40 39 38 34 31 28 26 22 20 17 15 14 13 13 11 10 9 10 11 9 9
25 27 32 32 33 35 38 35 36 39 38 37 37 36 33 30 28 23 20 18 16 14 13 10 10 12 10 9 9 9 8 9
22 25 30 33 33 31 32 34 37 36 33 34 35 36 33 31 22 20 19 17 16 13 13 14 13 12 11 11 10 9 7 7
20 26 29 31 28 29 28 28 32 32 33 34 33 29 26 25 22 20 20 17 17 16 16 17 16 16 13 12 13 12 10 9
21 25 28 29 32 29 23 28 28 25 26 27 27 24 24 22 21 19 17 18 18 18 19 21 20 18 16 15 15 15 15 14
22 22 28 31 30 29 25 31 27 26 26 26 25 20 19 18 19 20 17 20 20 21 22 24 22 19 14 14 17 18 20 21
22 26 28 32 30 25 21 28 21 25 25 29 31 23 19 19 18 20 19 19 20 22 25 26 26 20 10 4 1 8 22 26
21 25 29 30 25 24 20 28 23 24 25 26 28 22 19 20 21 21 20 22 23 23 25 29 27 25 24 11 1 4 1 13
22 28 30 32 31 30 27 21 21 24 26 34 31 28 25 21 24 26 26 25 26 27 27 33 32 27 21 23 14 4 3 3
27 27 31 32 35 32 33 27 26 25 29 26 33 33 31 34 27 27 30 30 31 33 34 34 36 29 28 16 25 15 12 7
31 31 32 36 36 38 36 32 28 28 29 32 33 36 41 40 33 32 31 32 36 37 38 37 38 38 34 30 24 9 12 10
31 33 33 35 36 38 40 39 37 35 35 33 32 37 42 43 38 37 37 38 38 39 38 37 35 35 34 35 34 30 23 19
35 35 37 37 40 40 41 39 38 38 36 34 35 39 41 41 40 39 40 41 41 40 30 26 30 33 32 34 33 28 24 24

GFSFLT2_925_spd_066.txt.gz
Wind_Speed
27 25 29 21 24 32 35 33 31 32 36 36 34 31 31 33 35 32 30 30 33 33 32 30 30 28 26 26 25 26 27 28
26 30 31 24 31 40 35 34 30 36 33 35 35 34 32 33 34 32 30 31 33 32 31 29 28 26 25 25 24 24 25 25
11 27 22 34 31 25 33 28 30 32 34 32 34 33 32 34 34 33 32 32 32 30 29 27 25 24 23 22 22 23 24 24
25 30 40 43 37 40 37 29 31 27 30 32 33 33 31 33 35 33 31 31 30 30 28 27 25 23 22 20 20 21 21 22
32 38 41 42 39 43 44 35 32 28 31 33 32 33 32 33 35 34 32 32 31 30 29 25 22 21 20 19 19 19 20 20
21 36 38 39 39 39 34 40 38 35 31 34 35 34 32 32 34 34 31 28 28 26 24 22 20 18 17 17 17 17 17 18
22 26 37 32 34 36 40 35 39 41 41 32 35 34 35 33 33 33 30 25 24 25 23 22 19 16 15 13 14 14 15 16
18 28 28 32 32 32 33 29 33 38 40 37 38 39 36 33 33 31 27 23 21 21 18 17 16 14 14 12 12 12 13 14
16 21 29 30 29 29 31 34 36 35 36 42 41 39 36 34 31 29 26 22 21 19 16 15 14 13 12 11 11 11 11 11
23 20 22 19 29 26 30 31 36 36 41 43 40 38 35 32 29 27 26 21 18 17 16 15 14 13 11 11 11 11 10 11
19 21 22 25 25 25 28 30 35 35 37 39 39 37 35 32 29 28 22 18 15 16 15 13 14 13 11 11 10 11 10 11
18 21 24 26 26 31 27 27 29 33 36 38 36 35 33 32 31 23 16 18 17 17 14 14 14 15 14 13 13 13 14 15
17 21 23 28 26 27 27 25 28 32 33 30 29 32 29 27 22 23 22 20 21 18 17 16 19 16 13 13 15 16 18 19
19 20 24 25 24 24 23 25 21 28 29 26 27 29 24 24 23 21 21 21 20 20 20 20 21 19 9 3 1 7 21 24
22 23 27 27 28 24 17 23 20 20 24 25 26 24 27 24 19 22 23 16 19 19 21 22 22 22 23 8 1 4 2 9
23 24 27 29 30 28 25 23 22 21 27 28 26 22 19 20 20 18 18 17 18 20 20 23 24 22 21 25 18 6 4 2
25 26 28 30 31 31 29 27 26 27 25 26 30 28 31 27 23 19 20 21 24 24 25 27 27 28 29 16 26 17 12 5
25 26 32 32 34 34 35 33 34 32 28 28 30 31 33 31 29 26 26 24 25 28 29 30 31 31 32 30 23 11 16 10
27 28 30 36 36 38 38 37 36 36 35 31 31 34 35 39 36 36 33 31 29 28 30 29 32 26 25 28 35 34 28 22
32 31 32 36 39 39 40 38 35 35 37 33 33 32 34 35 37 38 38 35 33 32 33 33 27 21 18 23 30 31 36 31

GFSFLT2_925_spd_069.txt.gz
Wind_Speed
30 30 26 30 29 29 31 32 32 33 35 37 39 37 36 33 31 30 30 30 31 28 30 28 29 28 28 28 29 26 23 23
19 28 29 26 24 25 29 30 32 33 35 35 40 39 37 34 30 30 31 31 31 30 30 29 29 28 27 27 27 26 21 21
15 25 26 24 24 30 34 34 29 29 32 36 39 35 36 32 26 30 34 33 31 31 29 29 28 27 25 25 24 18 19 18
9 8 18 25 31 37 29 32 32 34 30 35 32 38 36 33 29 31 34 34 31 30 29 29 25 22 22 22 16 17 16 16
19 20 20 27 33 36 36 36 41 34 32 36 33 37 36 34 31 31 32 32 27 27 27 19 21 19 20 15 17 15 14 15
24 25 32 33 34 38 30 38 38 36 35 37 37 37 37 36 34 30 33 26 27 29 23 23 23 22 20 19 17 14 13 14
15 28 35 34 35 36 29 33 36 32 36 37 38 39 38 35 35 33 30 29 29 25 25 23 22 21 19 17 17 14 14 12
19 21 30 35 33 35 33 34 33 32 34 36 38 39 40 37 35 32 31 30 29 26 25 23 20 19 18 17 16 14 13 13
18 22 27 33 34 34 33 33 34 34 34 37 39 39 41 37 35 31 30 29 28 25 22 20 18 17 16 16 15 14 14 14
14 19 28 34 35 31 31 33 35 32 31 35 39 39 39 38 36 30 28 29 26 25 23 19 18 17 16 14 13 13 13 14
17 18 19 31 33 31 33 31 31 32 34 31 34 38 38 37 36 32 28 27 26 24 21 19 18 16 14 13 13 13 13 14
16 18 22 27 31 31 32 31 30 34 33 37 35 37 38 37 35 33 29 25 25 23 19 18 16 15 11 12 12 12 14 15
16 21 20 23 25 21 29 28 32 32 34 31 33 38 39 36 34 31 28 29 28 22 18 18 15 15 10 6 10 14 16 17
16 19 23 26 25 22 21 24 27 31 35 24 37 43 39 35 31 31 30 28 22 17 20 16 15 16 7 3 3 6 17 23
18 19 24 26 26 26 22 24 19 22 30 27 35 35 30 30 29 28 26 26 25 24 22 19 13 18 20 6 3 5 2 8
19 20 20 20 26 26 24 25 19 19 28 32 28 29 24 26 28 25 25 24 22 17 20 18 18 13 16 25 21 6 5 4
21 21 23 21 23 25 24 23 20 26 27 34 29 34 30 31 29 24 26 22 21 21 22 20 20 19 20 12 18 15 13 14
22 21 21 23 25 24 25 24 24 24 25 31 34 38 36 34 31 34 31 27 26 25 22 21 20 23 22 18 15 9 12 12
28 27 26 25 26 27 27 26 24 26 31 27 30 33 35 35 33 29 29 29 28 23 21 20 23 24 24 21 25 27 27 18
30 29 28 28 29 28 27 28 29 27 27 26 28 28 29 37 32 32 32 32 30 27 25 26 26 28 23 21 22 23 25 26

GFSFLT2_925_spd_072.txt.gz
Wind_Speed
16 17 20 26 25 24 26 35 39 37 38 34 37 34 37 33 31 29 28 28 26 25 24 25 26 26 27 26 24 19 18 19
21 18 17 16 19 22 24 27 34 38 37 37 36 36 35 35 33 28 27 27 26 27 25 26 26 26 27 26 25 20 18 18
21 22 21 21 21 22 28 27 32 33 35 34 38 33 30 31 28 29 29 29 29 27 27 26 26 25 25 25 16 16 15 15
11 17 18 17 26 28 24 27 32 36 34 35 35 31 26 26 28 30 31 29 29 28 28 27 22 19 20 13 14 15 15 15
12 17 17 12 22 39 31 38 34 36 35 36 31 26 27 24 28 27 26 27 24 24 26 18 17 17 16 11 16 13 16 16
13 14 16 20 16 21 22 23 30 34 37 30 31 25 27 25 28 28 26 24 23 22 18 16 16 15 14 15 14 14 15 16
17 18 19 22 23 19 25 34 39 33 32 29 28 27 29 24 24 26 26 23 23 20 16 17 16 15 14 14 13 13 14 14
15 21 24 26 28 26 30 34 39 33 29 29 28 28 28 27 24 24 24 23 22 19 18 18 17 15 14 13 12 13 12 12
16 24 27 32 32 27 31 30 32 34 30 28 27 29 30 27 24 22 23 23 21 19 18 16 16 15 14 13 12 11 11 11
12 21 28 28 29 30 31 32 29 32 30 27 27 32 33 30 22 22 22 21 20 19 19 16 16 15 14 12 11 11 11 11
12 19 22 26 29 28 32 34 30 29 30 35 32 30 34 26 24 23 21 20 20 19 18 17 16 14 12 12 11 10 11 12
13 13 22 27 27 26 29 30 31 27 29 35 36 28 34 25 25 23 24 21 20 19 17 14 14 13 12 11 11 10 11 11
13 17 23 29 28 27 27 27 31 32 36 29 35 24 28 26 25 23 22 22 23 19 16 14 12 13 11 8 9 12 12 14
15 19 25 27 27 26 24 31 25 32 37 35 32 23 25 24 27 28 25 19 19 17 17 14 11 15 10 9 5 11 17 18
18 18 22 21 21 21 16 22 22 23 28 38 40 32 28 26 34 34 31 21 17 19 19 17 13 14 15 8 4 6 6 11
19 21 22 20 22 23 21 24 19 21 27 29 37 29 30 31 31 31 32 29 19 21 24 17 13 14 12 19 16 7 5 4
22 21 23 21 22 22 24 24 24 20 23 31 33 29 26 31 32 31 34 31 32 23 23 17 16 16 16 10 16 16 14 13
24 24 25 24 25 25 26 25 24 23 26 26 30 35 38 31 31 34 35 27 27 26 20 22 22 18 19 17 16 11 13 14
27 27 28 29 29 28 28 28 28 27 32 32 31 31 39 40 39 39 31 29 32 26 29 29 21 24 21 20 19 20 18 17
31 30 30 32 31 31 30 30 30 29 31 34 33 34 38 42 45 44 41 37 39 36 32 19 21 21 21 21 20 21 21 20

GFSFLT2_925_spd_075.txt.gz
Wind_Speed
13 13 16 17 22 27 20 30 32 40 40 37 35 34 34 35 30 30 29 26 25 24 25 22 25 26 22 19 19 16 18 19
11 12 15 16 17 22 20 20 30 35 37 38 36 36 36 37 33 30 28 23 25 25 24 23 25 26 21 19 19 17 18 18
18 11 12 14 14 12 16 18 25 26 34 35 28 33 33 34 28 29 27 26 25 25 25 24 24 24 22 23 14 14 16 16
13 16 17 17 17 17 15 13 21 30 33 29 29 23 25 27 29 29 28 27 25 25 24 24 22 21 18 11 7 12 14 15
8 11 11 11 8 14 19 24 24 34 35 33 33 26 26 26 31 28 27 26 21 22 24 19 19 19 14 8 13 10 14 15
7 7 5 5 6 15 25 23 35 33 38 33 31 31 23 24 28 25 26 24 23 22 20 17 17 16 11 13 13 12 15 15
9 11 9 9 6 10 23 25 22 38 36 38 33 30 24 27 27 27 26 24 23 21 16 17 16 14 13 13 13 12 14 14
13 10 15 14 10 10 16 22 29 29 35 38 32 29 26 25 27 27 26 25 22 20 17 17 16 15 15 14 13 13 13 14
12 18 16 20 17 15 19 24 28 31 30 30 29 26 25 26 28 27 27 25 22 18 17 17 16 15 15 14 13 13 13 14
11 14 21 21 21 22 25 27 34 29 33 28 28 27 26 25 21 20 21 21 20 19 19 17 16 15 14 14 13 13 13 13
11 16 21 25 25 30 26 26 32 32 33 31 28 27 26 25 24 20 21 20 19 19 18 17 16 15 15 14 13 13 13 13
13 18 18 25 26 25 30 28 30 33 31 28 27 26 29 25 23 21 22 19 19 19 19 17 16 15 15 14 12 11 13 14
14 16 21 24 26 26 25 25 30 30 32 31 29 24 26 25 24 22 23 23 22 19 17 17 15 14 13 11 10 13 14 15
16 17 19 24 28 26 27 29 30 29 31 34 35 23 24 23 22 23 24 21 19 19 18 16 16 17 15 14 6 11 18 18
19 18 22 22 24 22 20 22 24 25 27 28 34 30 25 24 22 23 24 22 21 22 20 18 18 16 16 8 3 5 10 18
20 21 22 23 23 24 28 25 17 28 30 28 31 35 26 21 19 22 27 24 23 20 22 21 18 15 12 14 14 9 3 3
22 23 25 26 25 26 29 25 29 22 30 34 30 33 28 21 23 31 34 31 24 22 25 19 21 19 18 12 11 13 14 9
23 25 26 26 27 28 26 29 29 23 28 31 36 29 32 30 28 34 37 32 31 29 27 24 22 18 21 19 18 11 12 13
25 27 28 30 28 29 28 28 28 30 31 32 32 37 35 38 33 33 42 39 37 35 28 28 28 25 25 24 20 18 19 18
27 27 28 30 31 30 29 28 28 29 31 32 34 38 43 40 40 36 41 43 37 31 32 32 30 30 31 25 21 21 21 22

GFSFLT2_925_spd_078.txt.gz
Wind_Speed
12 10 15 18 14 11 9 18 25 31 38 37 37 36 35 33 33 32 28 26 24 30 25 25 25 29 21 15 13 19 26 23
12 10 10 9 11 14 13 8 4 29 39 39 39 38 34 33 33 31 27 25 24 27 23 27 31 26 20 18 18 27 21 23
13 9 8 9 7 10 14 16 9 14 35 37 37 35 33 31 29 30 27 25 26 25 25 28 31 26 21 22 18 20 25 22
10 14 7 8 12 13 15 19 22 18 25 27 36 36 31 26 29 28 28 28 26 24 24 25 26 26 21 16 12 22 23 19
8 10 9 8 9 13 16 15 20 28 27 37 36 33 29 24 29 27 28 27 26 24 25 24 26 25 17 8 11 22 22 20
5 6 7 6 10 12 15 18 25 28 29 39 39 34 30 29 30 29 26 27 26 27 28 21 21 18 9 15 17 24 23 21
5 8 5 6 6 9 15 22 26 34 41 36 38 35 30 27 28 30 26 26 25 30 24 23 20 16 13 18 8 24 20 20
11 9 12 11 8 6 13 19 24 37 42 38 37 34 31 30 27 28 24 28 28 24 18 22 20 15 17 14 13 20 19 19
10 10 12 13 14 17 16 20 22 34 39 35 37 32 30 33 32 28 25 28 25 19 22 18 18 18 16 14 15 15 19 22
12 12 14 13 13 15 20 24 26 30 31 36 34 29 29 32 31 28 27 29 25 22 23 21 20 20 18 15 16 13 18 21
12 12 15 14 15 20 20 23 26 31 32 34 32 26 22 27 30 26 28 32 27 26 23 21 21 19 20 17 17 16 17 18
14 15 15 20 19 21 22 27 27 32 31 34 35 27 28 28 28 22 23 29 27 24 21 20 20 18 19 17 15 16 18 17
17 18 18 21 24 25 25 26 31 28 34 34 34 35 31 34 27 20 22 25 24 22 18 18 20 18 16 17 13 12 15 18
21 19 22 23 24 24 25 28 28 31 31 33 31 29 30 28 25 26 26 23 23 23 22 21 19 21 14 14 3 9 17 18
20 20 23 26 24 24 25 25 23 24 27 32 34 30 28 31 28 30 31 28 29 27 23 22 19 21 17 8 3 4 7 17
21 23 22 26 28 25 26 25 24 25 30 32 36 32 30 30 26 30 32 26 26 28 28 26 24 23 25 21 13 3 2 1
22 24 23 23 28 27 27 24 26 26 26 27 32 36 31 28 28 29 33 26 28 31 30 29 26 23 20 18 22 17 14 4
26 25 25 25 28 28 28 26 26 27 28 29 30 36 40 31 28 35 33 33 31 31 33 31 26 22 19 19 17 10 14 9
25 28 26 28 28 28 31 28 29 31 33 33 31 30 34 40 29 34 35 38 36 33 29 27 24 23 24 25 25 23 19 20
28 29 28 31 32 29 29 30 31 30 34 32 34 36 38 42 40 35 36 37 38 38 34 29 26 27 26 26 30 28 24 27

GFSFLT2_925_spd_081.txt.gz
Wind_Speed
7 10 11 14 16 14 12 14 17 22 17 36 33 35 37 32 29 30 29 26 28 35 35 33 28 26 23 22 28 26 23 26
8 10 9 15 16 13 13 12 14 23 17 24 40 38 35 35 35 31 27 25 31 33 32 30 28 25 21 20 30 25 23 28
8 9 11 10 13 15 15 11 9 11 25 19 40 39 37 36 34 29 26 26 33 31 29 30 29 23 25 33 30 26 24 27
4 12 9 11 13 16 19 15 9 18 15 22 38 41 39 35 31 28 25 29 30 29 30 32 27 25 24 19 29 27 25 26
5 10 8 11 13 14 19 21 16 14 7 37 39 39 37 35 33 30 28 27 29 29 32 30 27 25 20 18 29 26 26 29
11 11 11 12 14 16 17 22 23 18 23 32 40 39 35 36 33 30 29 28 30 30 32 29 28 21 12 15 27 24 25 28
16 13 13 12 14 17 18 19 24 27 32 37 37 37 34 34 32 32 32 31 30 31 29 29 27 15 20 21 25 23 25 27
17 14 13 11 12 13 16 18 26 35 36 44 45 39 37 35 34 35 33 34 34 33 30 29 22 14 17 10 22 23 21 25
19 18 16 11 11 9 12 20 31 35 38 46 44 41 35 36 37 35 33 34 37 32 28 25 20 18 20 13 25 22 20 23
20 22 20 16 14 17 17 22 27 33 37 40 43 42 38 37 37 35 33 34 34 26 28 29 25 21 20 16 24 23 20 20
20 19 23 21 19 16 19 21 31 27 38 39 43 38 36 37 34 33 34 34 30 25 32 28 26 24 20 18 17 24 20 20
21 19 22 24 24 22 20 22 26 31 33 39 40 39 36 39 36 33 32 34 32 32 30 28 29 28 24 20 19 17 21 22
22 21 21 24 25 27 25 22 26 31 35 39 39 39 33 39 39 34 33 36 34 36 32 28 29 29 24 20 14 19 21 20
24 21 22 24 26 26 22 27 26 26 34 36 39 35 28 36 34 30 27 33 33 35 30 27 29 25 19 16 2 5 12 20
25 24 26 24 26 25 23 25 23 24 27 32 37 31 30 33 25 27 26 35 30 33 31 28 27 25 21 11 2 4 4 17
27 26 27 25 28 25 28 23 22 22 30 34 37 35 32 29 27 31 36 40 39 34 33 32 32 28 26 18 11 8 3 2
31 28 29 26 29 29 29 23 21 23 26 27 34 33 28 33 31 28 33 33 33 34 34 36 36 33 25 26 20 13 8 3
34 33 26 28 31 29 29 26 25 23 25 28 32 35 31 29 32 29 36 34 31 36 38 36 36 30 33 27 24 12 12 6
33 35 30 29 32 30 31 30 30 28 29 31 29 30 34 33 32 30 34 39 33 33 36 37 33 33 31 31 29 22 15 13
32 32 29 31 29 31 31 29 32 29 31 29 31 31 36 37 38 31 36 40 38 36 36 37 34 33 28 29 28 26 24 24

GFSFLT2_925_spd_084.txt.gz
Wind_Speed
15 14 13 17 20 21 19 17 19 19 27 24 34 31 27 27 30 31 33 31 38 37 37 36 34 25 26 29 27 28 29 30
14 13 12 16 20 18 17 17 21 21 28 33 38 33 29 30 32 33 30 30 38 37 36 34 28 22 28 31 29 27 29 30
12 13 14 15 18 16 13 15 19 20 22 34 33 32 36 32 34 34 28 30 37 36 35 31 24 24 31 30 28 28 29 28
11 17 15 13 14 17 17 17 18 16 27 28 34 40 39 34 33 29 27 35 36 35 31 29 24 32 35 30 26 27 28 29
13 19 16 16 17 18 19 21 17 15 17 27 28 39 38 40 35 30 30 36 35 32 30 30 32 27 31 28 27 28 29 29
16 20 17 16 16 18 22 22 17 20 15 24 45 38 39 38 35 34 32 38 37 33 34 32 28 23 27 29 28 27 29 29
19 19 19 18 17 18 21 24 19 24 14 29 40 39 38 35 36 35 34 35 35 35 35 32 28 19 26 31 28 27 27 28
22 21 16 15 19 20 20 24 25 23 24 39 38 40 41 38 37 35 37 35 35 36 34 31 25 18 28 30 26 26 27 28
25 21 17 14 17 19 21 24 28 30 33 43 43 41 41 40 35 36 38 37 37 38 33 28 25 19 26 26 26 26 26 27
25 23 19 15 14 16 21 22 23 29 30 39 37 39 41 39 37 36 36 37 38 36 38 29 25 19 22 26 27 25 25 26
27 23 20 16 14 15 15 22 23 30 33 39 39 39 38 37 34 34 35 38 36 35 36 32 26 22 19 25 27 25 25 26
28 26 21 19 18 18 16 19 20 26 34 38 39 38 38 35 34 36 38 42 38 34 33 30 30 25 20 27 25 25 24 25
31 27 25 25 23 21 17 18 24 23 30 35 36 37 36 33 32 34 39 43 38 31 34 34 29 27 23 22 23 24 24 24
34 29 31 27 27 23 17 18 20 23 27 29 37 35 34 33 35 35 39 35 36 34 36 29 26 31 17 14 3 6 20 25
35 33 30 28 28 23 22 19 17 20 24 28 34 33 33 35 34 38 36 36 36 35 37 33 23 33 29 13 2 3 6 17
34 33 30 29 29 26 26 21 19 17 24 28 34 37 28 31 36 36 36 38 34 36 37 36 33 29 25 20 14 10 3 2
35 28 29 30 30 28 27 22 18 18 21 25 32 38 27 25 32 35 33 35 33 33 35 38 36 35 28 26 18 13 11 3
30 28 29 28 29 30 29 26 22 22 23 27 33 35 31 30 27 31 34 35 40 35 36 36 37 37 37 33 27 13 9 5
31 30 29 30 32 31 31 29 28 28 30 28 26 29 35 34 32 33 31 35 38 43 42 44 42 41 37 36 36 29 19 18
31 32 30 35 33 32 33 32 29 28 32 32 31 32 35 39 32 34 36 35 39 39 42 39 40 40 39 40 37 37 30 24

GFSFLT2_925_spd_087.txt.gz
Wind_Speed
19 18 17 18 19 22 23 28 29 31 20 15 23 30 31 27 26 26 29 30 32 37 36 35 30 30 30 28 25 25 27 27
19 17 15 15 16 18 22 24 23 24 23 23 27 31 32 32 29 30 31 32 34 35 38 33 27 29 28 27 25 25 28 28
19 17 15 16 20 20 20 19 20 20 18 22 31 34 30 31 30 29 30 34 34 37 37 28 26 28 27 27 26 26 28 27
19 19 20 19 21 23 21 20 21 20 21 28 31 33 34 30 29 31 31 39 37 37 33 26 28 33 29 26 25 28 27 26
20 20 20 19 21 21 21 21 21 21 22 33 35 38 33 35 34 33 31 38 38 36 31 28 32 34 32 28 27 26 27 29
19 23 20 20 20 22 23 23 23 21 21 29 38 37 37 34 35 36 33 39 38 37 30 27 32 34 32 27 26 27 30 29
21 24 23 21 19 22 24 25 25 24 17 24 37 35 38 35 34 37 36 42 41 37 31 29 32 32 29 27 28 29 29 28
24 25 24 21 19 19 23 25 24 23 17 25 37 29 39 36 34 37 37 41 40 37 36 31 29 31 29 28 27 27 26 28
27 27 25 23 18 18 20 22 24 23 22 18 29 38 39 37 37 37 36 40 38 36 33 30 25 28 30 29 25 25 25 27
30 28 25 23 20 20 20 20 24 24 22 25 32 35 38 34 35 35 36 39 39 39 36 29 26 30 32 28 25 24 24 25
32 29 26 21 17 16 19 21 24 25 24 29 32 35 37 33 35 35 36 38 40 43 37 31 30 30 30 26 25 24 24 24
31 29 25 20 17 13 12 18 19 21 27 31 34 35 37 33 31 33 36 37 38 38 36 28 30 29 24 24 23 23 23 24
26 31 27 23 20 19 15 16 19 17 25 28 34 34 38 34 31 28 33 37 37 35 37 29 25 26 24 17 13 18 21 21
27 27 28 26 21 21 17 17 17 18 22 29 30 35 37 36 36 34 33 34 36 36 36 27 21 27 14 15 3 4 15 20
29 28 27 28 24 21 18 18 14 13 21 24 26 34 36 37 33 31 33 35 34 35 34 30 23 28 25 8 3 3 5 14
30 27 27 25 28 26 25 19 13 14 19 24 23 33 35 35 36 34 32 33 35 34 35 34 31 27 26 18 13 10 3 2
32 31 26 24 25 26 26 20 18 17 21 22 25 26 31 30 32 35 32 38 38 36 34 35 34 31 30 24 17 14 11 3
31 30 27 25 24 26 28 24 22 19 22 24 26 27 26 26 31 33 36 37 38 39 37 39 35 33 38 29 26 14 11 6
30 28 25 28 29 28 29 28 26 24 24 22 23 26 31 27 29 36 37 35 38 35 37 37 30 33 38 37 36 29 22 21
29 29 26 28 29 29 27 28 27 26 25 27 29 26 28 32 29 29 36 39 36 37 39 34 37 32 34 37 39 35 33 28

GFSFLT2_925_spd_090.txt.gz
Wind_Speed
17 18 20 21 20 21 23 25 31 29 30 30 29 26 21 23 22 27 28 25 28 30 33 33 33 32 30 29 27 26 26 24
19 19 19 19 21 22 23 26 32 31 32 26 21 23 27 24 28 26 25 29 32 33 35 35 32 30 28 26 25 25 25 25
19 18 17 18 18 22 23 28 32 32 32 25 20 21 25 33 28 27 25 29 33 35 35 34 30 28 26 25 24 24 24 25
22 21 19 19 19 20 24 25 28 29 28 26 24 25 27 33 31 28 27 31 34 36 34 31 31 29 27 25 24 24 23 25
25 24 24 23 22 23 25 25 24 24 24 23 26 29 31 31 30 27 27 32 36 38 32 31 31 32 28 26 24 24 23 25
25 26 26 26 25 26 26 25 24 24 25 26 28 35 33 32 31 29 25 31 38 39 34 32 30 30 28 26 24 24 24 26
26 26 28 27 25 24 24 24 24 24 24 25 30 31 36 31 33 27 31 35 41 38 33 32 31 30 28 24 24 24 26 26
27 27 29 28 26 25 23 24 24 24 23 24 30 35 39 37 33 30 34 38 41 39 35 34 34 32 27 25 23 25 26 24
30 27 29 28 26 23 20 20 23 26 26 22 24 34 33 33 34 33 36 41 40 36 32 32 31 30 27 25 24 26 24 24
30 28 29 28 25 22 19 19 22 25 23 23 20 33 41 40 36 35 37 40 40 36 32 32 33 31 29 26 25 25 23 24
30 29 29 27 23 21 18 18 20 21 21 23 16 28 32 36 34 35 37 40 39 39 36 34 32 29 30 27 25 25 23 23
29 30 28 26 21 16 17 18 18 21 21 21 20 28 30 34 32 34 35 38 36 35 37 31 31 31 24 24 21 22 21 22
30 31 29 25 19 15 15 18 18 14 17 24 23 23 30 31 29 31 34 38 37 35 36 31 26 30 26 14 12 15 18 19
27 28 31 27 24 15 11 18 15 15 15 19 26 32 32 30 27 29 32 34 36 37 33 28 21 31 15 13 3 3 11 17
31 29 31 27 21 18 14 15 12 13 13 18 16 34 35 34 32 30 29 31 34 37 33 30 22 30 25 9 3 3 5 12
29 28 31 26 22 21 21 18 12 11 15 18 23 28 37 41 38 33 34 30 28 36 36 29 30 26 26 9 9 12 3 2
31 28 27 26 26 22 21 19 17 18 16 17 22 24 32 34 36 37 37 34 31 36 37 36 26 30 25 19 13 13 9 3
28 30 26 25 27 23 21 20 21 18 19 20 22 21 25 35 35 36 37 34 36 36 35 34 34 27 33 29 24 13 11 6
27 29 27 28 28 24 23 22 24 24 21 20 21 24 24 30 35 36 37 37 33 36 37 35 32 33 31 34 32 31 22 21
28 29 27 28 27 25 21 26 24 23 23 21 22 21 26 28 28 31 35 36 35 39 40 38 36 40 40 32 35 33 32 26

GFSFLT2_925_spd_093.txt.gz
Wind_Speed
14 17 19 19 19 23 22 23 24 25 29 30 30 29 28 25 21 14 20 20 23 27 27 29 31 30 29 28 27 25 19 17
16 17 18 19 21 21 22 23 25 26 29 29 29 28 26 26 27 22 22 25 25 30 30 30 31 30 29 27 25 23 17 17
17 19 20 21 23 23 22 21 27 29 28 28 26 25 25 24 22 21 26 27 28 31 30 32 32 30 28 26 25 17 17 15
21 21 20 21 23 23 23 26 33 30 32 29 28 24 23 24 21 23 29 26 26 26 29 34 31 26 25 24 17 19 15 15
24 23 22 22 23 24 26 26 34 34 35 31 25 19 18 19 21 29 27 27 28 28 32 29 23 23 22 19 18 17 14 14
26 26 25 25 22 24 25 27 29 33 34 31 26 25 19 19 23 26 27 27 32 36 30 25 25 24 22 21 19 17 16 15
26 27 27 27 25 25 27 29 30 30 31 31 27 26 23 19 24 24 29 25 31 34 32 25 25 25 23 21 18 16 16 16
25 27 27 27 28 24 28 28 27 28 28 29 26 26 26 22 24 30 29 27 33 36 26 24 22 22 21 18 16 16 18 18
26 28 27 27 27 26 25 25 25 27 26 27 26 29 28 25 27 29 34 34 36 38 23 21 21 20 20 18 17 17 19 19
27 27 28 28 27 24 25 23 22 22 25 27 26 26 31 30 26 34 34 39 39 39 26 23 22 21 19 17 15 16 17 17
27 27 29 30 28 24 23 21 21 23 23 27 28 25 28 35 31 38 40 42 39 34 28 26 22 21 19 16 15 16 17 16
27 27 28 30 29 24 21 19 18 18 18 22 24 23 31 40 31 43 43 41 34 30 30 23 22 21 17 14 13 13 14 14
29 31 29 32 30 24 20 20 20 19 18 18 20 18 23 34 38 41 38 37 35 33 30 25 18 21 19 11 8 9 11 12
28 33 33 34 28 20 12 16 18 19 14 18 22 23 21 24 30 36 34 31 34 35 31 23 17 25 16 17 5 4 8 13
32 34 34 32 28 19 12 13 12 16 15 16 15 24 22 27 28 31 34 36 37 37 34 26 19 23 21 10 4 5 9 10
26 28 34 31 31 23 19 19 15 12 12 15 20 25 26 26 27 28 33 32 32 36 36 29 23 24 22 9 10 10 5 4
28 27 27 28 32 25 22 18 16 13 12 15 17 27 32 29 31 30 33 32 33 35 34 29 27 28 23 18 13 10 11 4
29 29 29 25 29 25 23 21 18 17 16 19 19 26 28 33 36 33 36 34 30 29 31 34 34 27 26 24 20 11 8 6
31 31 29 29 29 25 25 25 19 20 18 19 19 18 26 29 36 40 40 36 40 39 35 36 36 36 35 28 23 24 19 19
30 31 30 29 29 24 23 22 19 18 19 21 17 20 23 29 32 37 39 36 40 43 33 34 39 35 33 36 30 27 25 20

GFSFLT2_925_spd_096.txt.gz
Wind_Speed
10 13 14 15 16 18 18 18 17 17 20 26 28 28 28 29 24 19 18 18 20 19 18 26 28 27 26 25 25 21 16 16
12 14 16 14 16 19 19 19 19 20 21 24 26 28 29 26 23 15 20 21 22 19 23 23 27 28 26 25 24 22 13 13
14 15 16 15 15 18 20 19 19 21 22 26 25 21 25 29 14 20 18 23 24 24 24 26 28 28 28 25 22 14 13 10
14 15 16 15 14 15 19 16 19 20 20 22 20 19 20 18 17 17 20 22 22 22 24 26 25 24 24 23 16 12 10 9
15 16 17 17 15 15 20 21 22 22 21 22 20 20 18 18 17 17 17 21 21 22 23 23 22 23 21 19 12 12 10 10
19 19 19 18 16 19 19 22 25 29 28 24 21 20 18 17 16 15 16 22 21 26 27 23 22 21 21 17 14 12 12 11
22 21 20 20 19 17 17 18 25 23 31 26 23 21 19 17 17 16 18 22 25 26 26 26 21 19 18 16 14 12 12 13
23 23 23 21 20 20 18 18 18 21 28 32 31 24 18 19 18 20 21 23 28 30 30 25 22 19 18 17 13 12 14 14
25 23 24 25 22 21 20 18 19 20 25 31 32 25 20 21 21 22 27 30 28 32 28 23 21 20 19 16 14 13 15 15
25 24 25 26 22 24 24 18 20 19 20 23 24 23 21 23 25 24 30 36 33 33 26 23 23 21 20 17 14 14 15 15
26 28 26 26 22 22 26 17 23 16 17 17 19 23 25 22 26 27 34 37 37 37 28 24 23 21 20 17 15 15 15 15
25 28 26 28 22 22 22 19 22 15 15 17 19 23 25 29 29 29 39 40 38 37 29 27 25 23 20 17 15 15 15 13
27 30 28 31 27 26 22 19 21 17 16 16 19 24 30 29 30 36 39 40 43 42 29 28 24 24 22 15 11 10 11 12
27 32 29 30 27 24 17 18 16 17 16 18 17 19 24 31 35 41 41 39 40 37 30 27 24 25 22 19 6 6 11 14
28 32 29 29 26 23 16 14 11 16 16 14 20 20 20 23 32 38 39 40 38 36 32 28 25 25 24 17 6 6 16 16
25 28 29 28 29 25 23 20 15 17 15 18 14 22 21 25 27 32 37 36 33 34 32 29 28 26 22 22 16 11 10 6
23 26 29 28 30 26 23 19 14 15 15 14 17 21 23 25 27 27 30 29 30 32 30 29 27 27 24 18 14 12 14 8
25 28 29 29 29 27 24 19 16 17 17 16 20 22 25 25 27 27 30 28 32 31 30 26 24 23 23 27 22 16 14 11
26 29 30 29 29 28 25 20 18 18 19 16 21 21 24 28 32 33 32 33 33 36 36 34 31 27 27 26 25 22 16 15
26 29 28 29 30 28 24 20 18 17 19 18 17 18 24 27 30 34 34 34 34 35 36 37 34 32 30 30 27 24 23 18

GFSFLT2_925_spd_099.txt.gz
Wind_Speed
12 12 12 13 10 10 12 11 12 13 16 19 22 24 25 26 25 22 20 20 19 19 16 10 11 18 22 22 17 10 15 16
12 12 12 11 10 12 13 13 12 12 14 18 21 23 25 25 23 21 19 20 24 20 20 20 18 18 20 21 19 16 16 17
11 12 12 11 11 12 14 13 14 14 15 19 21 21 25 26 21 16 15 19 18 18 23 23 20 19 20 21 20 14 15 16
13 14 13 12 12 14 14 14 14 13 13 17 19 19 22 22 21 12 18 18 16 18 19 21 21 20 21 20 16 9 14 13
17 16 15 14 13 13 13 15 14 16 17 16 17 18 18 20 18 17 15 17 17 18 21 20 21 23 20 19 14 16 14 23
19 18 17 16 13 15 15 15 14 15 16 18 19 17 17 20 18 16 15 17 18 20 22 23 22 25 22 21 15 17 11 17
21 20 19 18 16 15 16 16 15 15 18 18 18 19 17 16 16 15 12 15 21 22 24 28 25 25 22 18 17 12 13 17
21 22 22 21 19 17 18 15 16 17 18 22 25 18 18 17 16 14 14 17 19 24 25 29 28 24 21 20 16 11 12 10
23 23 24 23 21 19 16 17 17 17 17 19 28 26 24 18 16 16 18 20 21 24 28 29 28 24 20 18 16 14 14 14
23 23 26 25 24 21 19 17 19 18 16 16 22 23 29 27 23 23 22 23 24 25 29 28 28 24 23 20 17 15 16 15
24 26 24 26 25 22 21 18 19 19 18 16 18 21 23 25 22 22 24 27 25 29 29 31 26 25 21 20 17 16 16 16
23 26 26 26 23 22 22 19 21 18 19 17 17 20 21 19 19 21 31 30 26 29 28 33 29 24 20 18 17 16 15 13
23 26 28 27 26 25 23 22 22 18 19 17 19 19 20 20 24 25 32 35 34 34 29 34 26 24 22 18 14 12 15 11
24 27 29 29 27 25 19 21 20 18 19 19 18 20 19 22 26 34 32 35 36 34 28 24 24 27 23 17 5 3 8 13
27 28 30 30 27 25 21 18 14 17 16 19 18 16 17 21 24 26 39 37 38 39 35 27 22 26 27 11 7 5 11 14
24 27 29 30 30 28 27 23 18 17 19 17 16 18 18 18 23 31 38 40 37 38 37 32 28 25 25 16 16 14 9 6
23 25 28 28 32 30 27 24 19 16 16 15 18 17 15 16 18 24 36 35 39 39 31 29 27 27 24 22 18 14 23 13
23 25 25 28 32 32 29 25 20 16 16 17 15 19 21 20 20 21 27 31 35 38 28 28 26 25 25 22 22 14 11 8
22 25 25 27 29 33 29 25 20 17 20 18 17 21 22 23 25 25 23 27 32 30 26 28 24 24 21 18 18 18 13 15
22 23 24 26 27 32 27 24 20 18 19 18 17 20 23 26 28 26 25 27 31 32 31 30 29 24 23 21 20 19 18 19

GFSFLT2_925_spd_102.txt.gz
Wind_Speed
12 13 12 11 9 10 10 9 9 10 11 12 16 18 17 17 18 20 18 19 18 20 19 18 19 10 12 16 13 10 14 19
12 12 11 10 10 10 11 10 9 10 11 13 16 18 18 19 20 21 20 21 21 21 19 21 18 14 13 14 12 15 15 19
16 16 13 11 10 9 11 11 10 10 10 13 15 17 20 21 22 20 19 19 19 21 21 13 19 19 17 15 14 13 15 18
18 17 16 16 14 12 11 11 11 11 10 13 16 16 19 21 21 21 19 18 22 18 17 17 19 21 22 16 17 14 18 21
20 19 17 18 15 15 14 13 12 10 12 13 16 17 17 19 21 18 17 21 20 17 17 19 22 24 22 20 21 16 16 20
20 21 20 20 18 15 16 18 16 16 16 16 16 17 18 21 21 20 21 23 21 21 22 24 25 25 24 24 20 18 18 20
28 24 23 21 19 20 17 15 17 17 17 19 19 18 16 19 21 20 22 21 22 23 25 27 26 28 27 24 24 20 24 24
34 29 26 23 22 19 22 19 18 18 17 19 19 20 17 18 20 18 18 18 22 27 25 26 28 28 25 24 22 17 27 26
38 32 29 27 22 21 22 22 19 21 21 18 24 23 21 18 17 17 16 17 21 28 23 27 29 27 24 26 21 16 21 23
37 34 31 28 24 24 22 24 21 21 18 19 22 25 27 21 18 20 20 21 24 24 26 27 30 28 25 26 19 17 15 25
36 35 31 30 26 22 21 19 23 20 22 21 20 22 24 26 25 24 20 22 27 26 28 30 30 28 26 23 21 20 20 22
38 35 30 30 27 21 21 19 23 20 18 21 21 21 21 22 23 24 24 26 29 26 26 29 33 32 27 23 24 22 22 19
26 31 30 29 29 27 24 22 23 24 20 19 20 20 20 22 19 21 24 30 33 33 27 29 27 32 23 18 20 23 20 16
15 28 31 31 28 28 22 22 22 23 22 20 21 21 21 23 22 21 27 30 30 30 29 24 20 34 15 14 4 7 10 13
27 24 32 31 27 24 19 22 17 23 23 23 23 22 19 20 22 24 27 35 33 34 32 30 24 31 25 12 4 3 9 10
17 23 23 33 35 29 28 25 21 20 21 20 21 22 17 19 21 24 28 37 37 35 36 31 26 26 26 18 10 20 4 3
22 25 27 31 37 33 31 25 24 20 21 22 24 20 20 21 20 24 27 36 34 35 35 33 29 28 27 22 17 22 21 6
25 20 27 31 34 32 31 29 23 22 23 20 19 20 18 17 16 15 23 33 35 38 38 36 34 30 27 22 21 12 15 12
29 23 24 30 30 29 27 29 24 24 25 20 21 22 22 20 15 14 22 30 31 34 36 36 35 33 30 30 25 19 11 11
32 34 23 26 26 23 26 26 25 20 25 21 21 23 22 23 19 18 23 27 30 27 26 32 34 32 30 27 22 18 13 8

GFSFLT2_925_spd_105.txt.gz
Wind_Speed
19 18 17 15 15 16 15 14 13 13 13 13 14 16 16 17 18 17 16 19 23 15 16 17 21 19 18 20 15 20 18 21
18 18 17 16 16 17 17 16 15 14 14 13 14 16 18 19 20 20 19 19 20 17 21 22 21 20 21 20 12 18 19 21
16 17 17 16 16 17 17 16 16 15 14 14 15 17 18 20 23 22 20 21 18 22 22 19 21 20 22 17 13 17 18 23
18 18 19 18 16 17 17 17 16 16 16 17 17 18 19 21 22 23 22 23 24 22 22 22 20 23 25 22 16 14 19 23
23 21 19 21 21 17 17 17 17 17 17 18 19 20 20 21 23 25 24 23 24 26 24 20 21 21 22 21 18 14 22 23
28 25 24 25 22 20 18 18 18 17 17 18 22 21 23 24 27 27 25 23 27 24 23 22 21 20 23 23 17 18 22 22
34 30 29 28 26 22 21 21 22 19 19 19 22 23 26 27 27 25 24 26 27 25 25 24 22 22 22 24 19 18 22 24
39 36 34 31 25 26 23 25 24 23 21 22 22 25 25 28 28 26 26 28 27 27 28 27 24 25 23 24 21 18 26 27
42 38 36 35 31 29 27 24 24 24 25 21 23 26 25 25 28 27 27 26 26 27 27 27 26 26 25 24 22 18 26 29
43 41 38 38 36 27 30 29 27 25 27 25 25 26 27 27 28 31 28 25 26 33 32 30 28 27 27 26 24 15 29 29
43 40 42 41 36 32 29 29 25 25 27 26 25 29 28 29 29 29 28 24 26 29 29 28 29 29 29 26 25 15 31 31
43 42 41 39 39 27 27 28 27 23 28 28 26 26 29 31 28 26 25 23 27 28 27 28 30 30 28 27 27 20 30 32
40 38 37 37 38 30 29 30 31 30 22 28 27 25 25 27 29 29 28 27 29 30 28 29 26 29 22 18 21 21 32 29
36 39 40 39 39 31 30 27 27 26 23 20 27 26 26 27 27 28 28 28 31 33 32 23 19 31 17 14 4 9 16 28
24 41 44 42 39 36 25 24 19 23 27 26 22 26 26 26 28 29 28 29 30 33 34 31 25 29 26 12 4 5 7 12
22 26 30 32 36 33 36 30 22 24 25 28 29 28 27 29 29 29 28 30 29 35 34 34 27 28 27 22 11 18 7 2
26 22 14 37 37 36 34 27 28 25 26 28 29 26 31 28 27 27 28 29 31 34 34 33 37 32 31 20 14 25 20 5
28 26 25 11 40 38 37 31 28 25 29 30 30 28 28 25 26 27 29 29 31 35 36 36 34 32 29 26 20 17 15 8
32 28 30 26 28 36 37 36 32 33 33 31 27 28 26 28 24 27 27 28 29 32 33 32 33 35 33 28 26 20 21 18
34 34 31 28 18 30 34 32 32 32 34 31 30 29 26 25 25 24 22 21 28 31 33 31 34 35 35 30 29 26 13 25

GFSFLT2_925_spd_108.txt.gz
Wind_Speed
26 23 20 20 19 20 20 20 21 21 21 20 19 19 21 22 22 24 22 16 13 21 16 17 14 19 22 19 16 20 20 21
24 23 22 21 21 20 20 20 21 21 21 21 20 21 21 22 23 23 22 17 21 17 15 17 14 19 24 23 18 22 20 22
23 22 21 21 21 21 20 20 20 20 20 21 23 24 24 23 23 22 19 20 22 13 16 14 17 19 22 24 16 20 19 23
22 22 22 21 22 23 22 22 21 21 21 22 24 25 27 25 23 22 20 20 19 17 16 15 19 21 20 20 15 22 19 23
24 22 22 23 23 24 24 23 22 21 21 23 23 25 27 26 25 25 23 22 21 21 20 19 22 24 22 17 18 22 21 23
29 26 24 24 23 25 25 26 24 23 23 25 26 27 28 29 29 29 27 26 24 23 22 23 21 21 22 18 16 21 25 26
31 31 29 28 27 25 25 26 26 26 25 27 28 29 30 30 31 31 30 28 27 26 26 25 21 21 22 21 19 21 24 24
35 34 33 32 33 29 27 26 26 26 27 28 29 29 31 32 33 33 30 31 27 30 29 26 24 21 21 24 21 20 23 23
38 39 38 37 36 32 29 28 28 28 28 27 29 30 31 33 34 34 32 30 28 30 28 26 24 22 22 21 21 19 22 26
40 40 42 40 40 36 33 32 31 32 29 27 27 30 31 33 34 34 33 31 31 30 29 28 27 26 26 24 21 22 21 25
41 39 42 44 43 38 37 34 34 33 31 30 29 30 32 33 34 33 32 31 31 31 30 29 25 27 29 25 24 21 24 24
46 46 45 44 37 35 36 34 34 32 31 32 29 31 33 33 33 33 34 34 34 33 29 27 27 25 23 22 24 20 21 26
40 36 36 37 36 33 34 38 38 33 32 32 31 31 33 34 34 33 35 37 35 31 27 25 23 24 18 13 16 17 22 27
39 41 41 45 39 37 28 31 35 35 31 31 33 32 34 36 35 34 34 33 31 30 27 21 19 27 16 14 4 4 22 25
11 18 30 40 40 31 24 27 22 25 29 29 34 34 33 34 36 37 37 35 33 31 32 28 21 27 24 10 3 3 10 17
16 10 17 18 21 27 31 31 26 31 31 31 26 30 34 33 32 32 32 33 30 31 32 32 29 24 27 27 16 13 8 4
21 18 12 6 22 23 30 26 24 22 28 30 32 27 30 33 32 31 31 32 31 32 31 32 34 29 31 27 16 21 18 11
22 22 14 10 2 29 31 31 28 26 29 30 32 34 34 33 33 33 32 31 31 32 32 32 33 32 34 27 22 21 20 17
18 17 20 18 13 12 28 34 34 37 34 30 28 30 31 34 34 34 32 31 32 32 31 32 35 36 38 35 27 25 29 20
29 26 17 17 21 19 21 32 31 30 33 31 33 34 33 34 33 32 30 29 30 33 33 34 32 26 34 28 28 29 30 27

GFSFLT2_925_spd_111.txt.gz
Wind_Speed
29 27 25 23 22 22 22 23 24 23 23 23 23 23 22 22 21 20 20 22 20 19 20 20 20 21 20 19 19 21 22 23
31 28 25 23 22 22 23 24 25 24 23 23 22 23 23 23 22 21 24 20 17 19 20 19 17 19 19 19 17 20 20 22
30 30 27 24 22 22 22 23 24 25 24 23 23 23 23 23 24 25 23 17 16 23 17 13 14 18 20 19 18 21 21 23
32 30 29 26 24 24 23 23 24 25 26 26 26 25 26 26 25 23 20 17 21 20 14 13 16 20 22 19 17 20 19 22
34 32 29 28 27 26 25 25 25 25 25 26 27 27 26 26 26 24 22 20 22 22 16 16 18 19 21 21 17 19 18 21
36 32 31 29 28 28 28 27 26 26 27 27 29 29 29 29 28 27 25 24 23 21 19 18 19 18 17 17 18 22 23 25
37 35 34 33 31 30 29 29 28 28 28 29 30 32 32 31 29 28 28 26 24 23 21 19 19 18 17 16 17 20 24 21
37 36 35 33 33 32 32 31 29 28 29 31 32 32 33 32 31 29 30 29 27 25 24 22 22 19 19 19 18 19 23 21
38 37 36 36 35 33 32 32 31 31 31 32 32 33 33 33 33 32 32 30 27 26 24 24 22 17 19 20 21 19 21 24
37 38 38 36 36 35 33 32 32 33 32 32 33 32 33 33 33 33 32 30 30 29 27 26 23 20 20 19 21 20 20 22
37 37 39 39 37 36 35 33 33 34 32 33 33 33 32 33 34 34 33 32 32 30 29 28 21 18 22 21 23 20 21 22
40 42 41 40 35 33 32 32 33 34 34 34 33 33 33 33 33 33 34 34 32 31 29 26 22 19 18 20 25 21 21 23
39 37 37 35 33 31 29 34 37 37 38 36 35 33 34 34 34 34 34 35 34 32 29 22 21 23 13 14 17 23 23 24
22 28 37 40 37 39 28 31 29 30 34 36 37 35 34 35 35 34 35 34 33 28 28 22 20 22 10 9 3 4 20 25
3 22 26 28 25 21 18 24 18 23 32 37 39 38 35 34 36 36 35 35 33 29 31 26 19 22 26 7 2 3 5 14
18 8 16 21 22 26 28 29 22 27 25 27 34 38 37 35 37 36 36 36 32 33 33 32 25 20 25 27 13 10 4 2
20 16 13 10 20 25 26 22 24 21 22 29 32 35 37 37 36 36 37 36 34 31 30 31 31 24 25 19 20 17 16 4
22 18 13 8 2 14 25 24 24 27 28 28 32 35 36 36 36 36 34 34 33 30 33 32 32 30 27 28 27 15 14 9
21 22 18 14 8 5 10 24 25 28 31 31 27 30 36 37 36 36 36 35 34 32 32 32 31 32 32 30 29 30 25 24
25 24 21 19 15 11 11 17 25 28 27 29 32 32 34 35 38 37 37 35 35 31 29 32 31 32 33 32 32 31 31 29

GFSFLT2_925_spd_114.txt.gz
Wind_Speed
34 32 29 28 29 28 27 26 26 26 25 25 24 23 23 22 21 20 20 19 19 20 19 20 20 20 20 20 21 22 23 23
35 33 30 28 28 27 27 27 26 26 25 25 25 23 22 21 20 19 19 19 20 20 19 19 20 21 20 20 20 21 21 23
32 32 31 29 27 28 28 27 27 26 25 25 25 24 23 21 20 19 19 20 19 19 19 18 19 20 19 18 19 21 22 22
33 33 33 31 28 27 29 29 28 28 28 27 26 25 24 23 21 20 23 19 14 19 19 16 17 20 21 18 18 20 21 19
35 35 34 32 31 29 29 30 30 29 29 28 27 26 25 24 23 23 23 19 16 23 15 15 17 19 20 18 17 17 17 17
36 35 34 34 32 31 30 30 30 30 29 29 29 28 27 27 27 25 24 20 21 23 14 14 15 18 19 19 16 16 19 20
38 36 35 34 33 31 30 31 31 31 30 30 30 30 30 28 29 28 26 22 23 23 18 16 17 16 16 16 17 17 20 20
38 38 38 36 35 33 32 31 30 30 31 31 31 31 31 30 29 28 27 25 23 21 20 18 17 17 16 15 15 16 19 21
38 41 39 37 35 33 32 32 31 31 32 31 31 31 32 31 30 28 27 27 24 21 20 19 17 18 15 15 17 17 17 19
39 40 41 39 38 35 34 33 32 32 32 31 32 32 32 32 30 28 26 25 25 25 23 21 20 20 18 16 16 16 16 17
38 42 43 42 39 37 35 34 33 32 31 32 33 33 33 33 32 28 26 26 26 26 25 23 23 21 19 17 16 16 17 18
40 41 41 40 33 27 28 31 32 33 33 34 33 34 33 33 33 30 28 27 26 27 26 24 22 23 17 16 19 18 18 19
32 35 36 31 30 28 26 30 33 34 35 35 34 34 34 33 33 31 29 30 30 28 24 19 19 18 13 15 16 19 23 24
19 27 30 32 31 29 20 25 23 28 33 35 33 33 34 34 33 32 31 30 28 27 26 18 18 21 8 5 2 5 18 24
5 22 31 32 30 26 17 20 17 20 25 35 36 35 34 34 33 33 33 32 29 30 29 26 16 20 23 8 2 3 3 11
11 14 20 24 28 25 27 24 19 26 25 28 34 37 35 35 34 33 33 34 32 32 32 32 24 17 20 30 16 5 3 2
14 12 12 12 18 25 27 23 23 22 26 24 29 35 37 37 36 34 35 35 34 33 32 32 32 22 22 16 24 21 15 3
20 13 13 10 6 10 19 27 23 22 27 28 30 33 37 40 37 34 33 34 35 33 32 31 31 29 23 23 21 12 12 8
20 17 17 13 8 3 5 10 23 29 30 29 29 29 30 37 39 37 36 37 36 34 32 30 32 30 29 27 27 26 25 26
21 21 22 20 13 10 7 8 12 19 29 30 32 30 31 30 35 36 36 36 38 35 34 33 33 31 31 31 29 30 30 27